Time,TemperatureF,DewpointF,PressureIn,WindDirection,WindDirectionDegrees,WindSpeedMPH,WindSpeedGustMPH,Humidity,HourlyPrecipIn,Conditions,Clouds,dailyrainin,SoftwareType,DateUTC
2013-01-22 00:03:00,36.2,33.8,30.14,NE,56,0.0,2.0,91,0.00,,,0.00,Wunderground v.1.15,2013-01-22 08:03:00,
2013-01-22 00:04:00,36.2,34.1,30.14,NE,56,0.0,2.0,92,0.00,,,0.00,Wunderground v.1.15,2013-01-22 08:04:00,
2013-01-22 00:09:00,36.1,33.7,30.14,NE,56,0.0,2.0,91,0.00,,,0.00,Wunderground v.1.15,2013-01-22 08:09:00,
2013-01-22 00:10:00,36.1,33.7,30.14,ENE,57,0.0,2.0,91,0.00,,,0.00,Wunderground v.1.15,2013-01-22 08:10:00,
2013-01-22 00:15:00,36.0,33.6,30.14,NE,56,0.0,2.0,91,0.00,,,0.00,Wunderground v.1.15,2013-01-22 08:15:00,
2013-01-22 00:16:00,36.0,33.6,30.14,NE,56,0.0,2.0,91,0.00,,,0.00,Wunderground v.1.15,2013-01-22 08:16:00,
2013-01-22 00:22:00,35.9,33.5,30.14,NE,56,0.0,2.0,91,0.00,,,0.00,Wunderground v.1.15,2013-01-22 08:22:00,
2013-01-22 00:24:00,35.9,33.5,30.14,NE,56,0.0,2.0,91,0.00,,,0.00,Wunderground v.1.15,2013-01-22 08:24:00,
2013-01-22 00:29:00,35.6,33.2,30.14,NE,56,0.0,2.0,91,0.00,,,0.00,Wunderground v.1.15,2013-01-22 08:29:00,
2013-01-22 00:31:00,35.4,33.0,30.14,NE,56,0.0,2.0,91,0.00,,,0.00,Wunderground v.1.15,2013-01-22 08:31:00,
2013-01-22 00:34:00,35.3,32.9,30.14,NE,56,0.0,2.0,91,0.00,,,0.00,Wunderground v.1.15,2013-01-22 08:34:00,
2013-01-22 00:38:00,35.2,32.8,30.14,NE,56,0.0,2.0,91,0.00,,,0.00,Wunderground v.1.15,2013-01-22 08:38:00,
2013-01-22 00:39:00,35.2,32.8,30.14,NE,56,0.0,2.0,91,0.00,,,0.00,Wunderground v.1.15,2013-01-22 08:39:00,
2013-01-22 00:44:00,35.0,32.6,30.14,NE,56,0.0,2.0,91,0.00,,,0.00,Wunderground v.1.15,2013-01-22 08:44:00,
2013-01-22 00:49:00,35.1,33.0,30.14,NE,56,0.0,2.0,92,0.00,,,0.00,Wunderground v.1.15,2013-01-22 08:49:00,
2013-01-22 00:50:00,35.1,33.0,30.14,NE,56,0.0,2.0,92,0.00,,,0.00,Wunderground v.1.15,2013-01-22 08:50:00,
2013-01-22 00:52:00,35.1,32.7,30.14,NE,56,0.0,2.0,91,0.00,,,0.00,Wunderground v.1.15,2013-01-22 08:52:00,
2013-01-22 00:57:00,35.4,33.3,30.14,NE,56,1.0,2.0,92,0.00,,,0.00,Wunderground v.1.15,2013-01-22 08:57:00,
2013-01-22 00:58:00,35.4,33.0,30.14,NE,56,1.0,2.0,91,0.00,,,0.00,Wunderground v.1.15,2013-01-22 08:58:00,
2013-01-22 00:59:00,35.4,33.0,30.14,NE,56,1.0,2.0,91,0.00,,,0.00,Wunderground v.1.15,2013-01-22 08:59:00,
2013-01-22 01:03:00,35.2,32.8,30.14,NE,56,1.0,2.0,91,0.00,,,0.00,Wunderground v.1.15,2013-01-22 09:03:00,
2013-01-22 01:04:00,35.2,32.8,30.14,NE,56,1.0,2.0,91,0.00,,,0.00,Wunderground v.1.15,2013-01-22 09:04:00,
2013-01-22 01:08:00,35.3,32.9,30.14,NE,56,1.0,2.0,91,0.00,,,0.00,Wunderground v.1.15,2013-01-22 09:08:00,
2013-01-22 01:09:00,35.3,32.9,30.14,NE,56,1.0,2.0,91,0.00,,,0.00,Wunderground v.1.15,2013-01-22 09:09:00,
2013-01-22 01:10:00,35.3,32.9,30.14,NE,56,1.0,1.0,91,0.00,,,0.00,Wunderground v.1.15,2013-01-22 09:10:00,
2013-01-22 01:12:00,35.3,32.9,30.14,NE,56,1.0,2.0,91,0.00,,,0.00,Wunderground v.1.15,2013-01-22 09:12:00,
2013-01-22 01:14:00,35.4,33.0,30.14,NE,56,0.0,2.0,91,0.00,,,0.00,Wunderground v.1.15,2013-01-22 09:14:00,
2013-01-22 01:15:00,35.3,32.9,30.14,NE,56,0.0,2.0,91,0.00,,,0.00,Wunderground v.1.15,2013-01-22 09:15:00,
2013-01-22 01:17:00,35.4,33.0,30.14,NE,56,0.0,2.0,91,0.00,,,0.00,Wunderground v.1.15,2013-01-22 09:17:00,
2013-01-22 01:20:00,35.4,33.0,30.14,NE,56,0.0,2.0,91,0.00,,,0.00,Wunderground v.1.15,2013-01-22 09:20:00,
2013-01-22 01:23:00,35.4,32.8,30.14,NE,56,0.0,2.0,90,0.00,,,0.00,Wunderground v.1.15,2013-01-22 09:23:00,
2013-01-22 01:25:00,35.3,32.7,30.14,NE,56,0.0,2.0,90,0.00,,,0.00,Wunderground v.1.15,2013-01-22 09:25:00,
2013-01-22 01:29:00,35.2,32.6,30.14,NE,56,0.0,2.0,90,0.00,,,0.00,Wunderground v.1.15,2013-01-22 09:29:00,
2013-01-22 01:30:00,35.2,32.6,30.14,ENE,57,0.0,2.0,90,0.00,,,0.00,Wunderground v.1.15,2013-01-22 09:30:00,
2013-01-22 01:31:00,35.2,32.6,30.14,NE,56,0.0,2.0,90,0.00,,,0.00,Wunderground v.1.15,2013-01-22 09:31:00,
2013-01-22 01:32:00,35.2,32.6,30.14,NE,56,0.0,2.0,90,0.00,,,0.00,Wunderground v.1.15,2013-01-22 09:32:00,
2013-01-22 01:37:00,35.1,32.5,30.14,NE,56,0.0,2.0,90,0.00,,,0.00,Wunderground v.1.15,2013-01-22 09:37:00,
2013-01-22 01:38:00,35.1,32.5,30.14,NE,56,0.0,2.0,90,0.00,,,0.00,Wunderground v.1.15,2013-01-22 09:38:00,
2013-01-22 01:40:00,35.0,32.4,30.14,NE,56,0.0,2.0,90,0.00,,,0.00,Wunderground v.1.15,2013-01-22 09:40:00,
2013-01-22 01:42:00,35.0,32.4,30.14,NE,56,0.0,2.0,90,0.00,,,0.00,Wunderground v.1.15,2013-01-22 09:42:00,
2013-01-22 01:46:00,34.7,31.8,30.14,NE,56,0.0,2.0,89,0.00,,,0.00,Wunderground v.1.15,2013-01-22 09:46:00,
2013-01-22 01:47:00,34.7,31.8,30.14,NE,56,0.0,2.0,89,0.00,,,0.00,Wunderground v.1.15,2013-01-22 09:47:00,
2013-01-22 01:48:00,34.6,32.0,30.14,NE,56,0.0,2.0,90,0.00,,,0.00,Wunderground v.1.15,2013-01-22 09:48:00,
2013-01-22 01:52:00,34.4,31.8,30.14,NE,56,0.0,2.0,90,0.00,,,0.00,Wunderground v.1.15,2013-01-22 09:52:00,
2013-01-22 01:54:00,34.4,31.8,30.14,ENE,57,0.0,2.0,90,0.00,,,0.00,Wunderground v.1.15,2013-01-22 09:54:00,
2013-01-22 01:55:00,34.3,31.7,30.14,NE,56,0.0,2.0,90,0.00,,,0.00,Wunderground v.1.15,2013-01-22 09:55:00,
2013-01-22 01:56:00,34.3,31.7,30.14,NE,56,0.0,2.0,90,0.00,,,0.00,Wunderground v.1.15,2013-01-22 09:56:00,
2013-01-22 01:57:00,34.2,31.6,30.14,NE,56,0.0,2.0,90,0.00,,,0.00,Wunderground v.1.15,2013-01-22 09:57:00,
2013-01-22 02:00:00,34.1,31.5,30.14,NE,56,0.0,2.0,90,0.00,,,0.00,Wunderground v.1.15,2013-01-22 10:00:00,
2013-01-22 02:02:00,34.1,31.5,30.14,NE,56,0.0,2.0,90,0.00,,,0.00,Wunderground v.1.15,2013-01-22 10:02:00,
2013-01-22 02:03:00,34.1,31.5,30.14,NE,56,0.0,2.0,90,0.00,,,0.00,Wunderground v.1.15,2013-01-22 10:03:00,
2013-01-22 02:08:00,33.9,31.6,30.14,NE,56,0.0,2.0,91,0.00,,,0.00,Wunderground v.1.15,2013-01-22 10:08:00,
2013-01-22 02:09:00,33.9,31.6,30.14,NE,56,0.0,2.0,91,0.00,,,0.00,Wunderground v.1.15,2013-01-22 10:09:00,
2013-01-22 02:10:00,33.8,31.5,30.14,NE,56,0.0,2.0,91,0.00,,,0.00,Wunderground v.1.15,2013-01-22 10:10:00,
2013-01-22 02:15:00,33.7,31.4,30.14,NE,56,0.0,2.0,91,0.00,,,0.00,Wunderground v.1.15,2013-01-22 10:15:00,
2013-01-22 02:16:00,33.6,31.3,30.14,NE,56,0.0,2.0,91,0.00,,,0.00,Wunderground v.1.15,2013-01-22 10:16:00,
2013-01-22 02:19:00,33.6,31.3,30.14,NE,56,0.0,2.0,91,0.00,,,0.00,Wunderground v.1.15,2013-01-22 10:19:00,
2013-01-22 02:20:00,33.6,31.5,30.14,ENE,57,0.0,2.0,92,0.00,,,0.00,Wunderground v.1.15,2013-01-22 10:20:00,
2013-01-22 02:22:00,33.7,31.6,30.14,NE,56,0.0,2.0,92,0.00,,,0.00,Wunderground v.1.15,2013-01-22 10:22:00,
2013-01-22 02:24:00,33.7,31.6,30.14,NE,56,0.0,2.0,92,0.00,,,0.00,Wunderground v.1.15,2013-01-22 10:24:00,
2013-01-22 02:26:00,33.7,31.6,30.14,NE,56,0.0,2.0,92,0.00,,,0.00,Wunderground v.1.15,2013-01-22 10:26:00,
2013-01-22 02:30:00,33.7,31.6,30.14,NE,56,0.0,2.0,92,0.00,,,0.00,Wunderground v.1.15,2013-01-22 10:30:00,
2013-01-22 02:31:00,33.7,31.6,30.14,ENE,57,0.0,2.0,92,0.00,,,0.00,Wunderground v.1.15,2013-01-22 10:31:00,
2013-01-22 02:32:00,33.7,31.6,30.14,NE,56,0.0,2.0,92,0.00,,,0.00,Wunderground v.1.15,2013-01-22 10:32:00,
2013-01-22 02:33:00,33.7,31.6,30.14,NE,56,0.0,2.0,92,0.00,,,0.00,Wunderground v.1.15,2013-01-22 10:33:00,
2013-01-22 02:37:00,33.6,31.5,30.14,NE,56,0.0,2.0,92,0.00,,,0.00,Wunderground v.1.15,2013-01-22 10:37:00,
2013-01-22 02:38:00,33.6,31.5,30.14,NE,56,0.0,2.0,92,0.00,,,0.00,Wunderground v.1.15,2013-01-22 10:38:00,
2013-01-22 02:39:00,33.5,31.4,30.14,NE,56,0.0,2.0,92,0.00,,,0.00,Wunderground v.1.15,2013-01-22 10:39:00,
2013-01-22 02:45:00,33.6,31.8,30.14,NE,56,2.0,3.0,93,0.00,,,0.00,Wunderground v.1.15,2013-01-22 10:45:00,
2013-01-22 02:46:00,33.6,31.8,30.14,NE,56,2.0,3.0,93,0.00,,,0.00,Wunderground v.1.15,2013-01-22 10:46:00,
2013-01-22 02:47:00,33.7,31.9,30.14,NE,56,2.0,4.0,93,0.00,,,0.00,Wunderground v.1.15,2013-01-22 10:47:00,
2013-01-22 02:48:00,33.8,32.0,30.14,NE,56,2.0,4.0,93,0.00,,,0.00,Wunderground v.1.15,2013-01-22 10:48:00,
2013-01-22 02:50:00,33.9,32.1,30.14,NE,56,2.0,2.0,93,0.00,,,0.00,Wunderground v.1.15,2013-01-22 10:50:00,
2013-01-22 02:52:00,33.8,31.7,30.14,NE,56,2.0,2.0,92,0.00,,,0.00,Wunderground v.1.15,2013-01-22 10:52:00,
2013-01-22 02:53:00,33.8,31.7,30.14,NE,56,1.0,2.0,92,0.00,,,0.00,Wunderground v.1.15,2013-01-22 10:53:00,
2013-01-22 02:54:00,33.7,31.6,30.14,NE,56,1.0,2.0,92,0.00,,,0.00,Wunderground v.1.15,2013-01-22 10:54:00,
2013-01-22 02:59:00,33.6,31.5,30.14,NE,56,0.0,2.0,92,0.00,,,0.00,Wunderground v.1.15,2013-01-22 10:59:00,
2013-01-22 03:00:00,33.6,31.5,30.14,NE,56,0.0,2.0,92,0.00,,,0.00,Wunderground v.1.15,2013-01-22 11:00:00,
2013-01-22 03:01:00,33.6,31.5,30.14,NE,56,0.0,2.0,92,0.00,,,0.00,Wunderground v.1.15,2013-01-22 11:01:00,
2013-01-22 03:02:00,33.5,31.4,30.14,NE,56,0.0,2.0,92,0.00,,,0.00,Wunderground v.1.15,2013-01-22 11:02:00,
2013-01-22 03:05:00,33.6,31.5,30.14,NE,56,0.0,2.0,92,0.00,,,0.00,Wunderground v.1.15,2013-01-22 11:05:00,
2013-01-22 03:07:00,33.6,31.8,30.14,NE,56,0.0,4.0,93,0.00,,,0.00,Wunderground v.1.15,2013-01-22 11:07:00,
2013-01-22 03:11:00,33.7,31.9,30.13,NE,56,1.0,3.0,93,0.00,,,0.00,Wunderground v.1.15,2013-01-22 11:11:00,
2013-01-22 03:13:00,33.8,32.0,30.13,NE,56,1.0,3.0,93,0.00,,,0.00,Wunderground v.1.15,2013-01-22 11:13:00,
2013-01-22 03:14:00,33.9,32.1,30.13,NE,56,2.0,3.0,93,0.00,,,0.00,Wunderground v.1.15,2013-01-22 11:14:00,
2013-01-22 03:16:00,34.0,32.2,30.13,NE,56,2.0,4.0,93,0.00,,,0.00,Wunderground v.1.15,2013-01-22 11:16:00,
2013-01-22 03:17:00,34.0,32.2,30.13,NE,56,2.0,4.0,93,0.00,,,0.00,Wunderground v.1.15,2013-01-22 11:17:00,
2013-01-22 03:20:00,34.2,32.4,30.13,NE,56,2.0,2.0,93,0.00,,,0.00,Wunderground v.1.15,2013-01-22 11:20:00,
2013-01-22 03:23:00,34.3,32.5,30.13,NE,56,2.0,2.0,93,0.00,,,0.00,Wunderground v.1.15,2013-01-22 11:23:00,
2013-01-22 03:24:00,34.3,32.5,30.12,NE,56,2.0,2.0,93,0.00,,,0.00,Wunderground v.1.15,2013-01-22 11:24:00,
2013-01-22 03:26:00,34.2,32.1,30.12,NE,56,1.0,2.0,92,0.00,,,0.00,Wunderground v.1.15,2013-01-22 11:26:00,
2013-01-22 03:30:00,34.2,32.1,30.12,NE,56,0.0,2.0,92,0.00,,,0.00,Wunderground v.1.15,2013-01-22 11:30:00,
2013-01-22 03:32:00,34.1,32.0,30.12,NE,56,0.0,2.0,92,0.00,,,0.00,Wunderground v.1.15,2013-01-22 11:32:00,
2013-01-22 03:33:00,34.1,32.0,30.12,NE,56,0.0,2.0,92,0.00,,,0.00,Wunderground v.1.15,2013-01-22 11:33:00,
2013-01-22 03:34:00,34.1,32.0,30.12,NE,56,0.0,2.0,92,0.00,,,0.00,Wunderground v.1.15,2013-01-22 11:34:00,
2013-01-22 03:39:00,33.7,31.6,30.12,NE,56,0.0,2.0,92,0.00,,,0.00,Wunderground v.1.15,2013-01-22 11:39:00,
2013-01-22 03:40:00,33.7,31.6,30.12,ENE,57,0.0,2.0,92,0.00,,,0.00,Wunderground v.1.15,2013-01-22 11:40:00,
2013-01-22 03:44:00,33.4,31.3,30.11,NE,56,0.0,2.0,92,0.00,,,0.00,Wunderground v.1.15,2013-01-22 11:44:00,
2013-01-22 03:45:00,33.4,31.3,30.11,NE,56,0.0,2.0,92,0.00,,,0.00,Wunderground v.1.15,2013-01-22 11:45:00,
2013-01-22 03:50:00,33.2,31.1,30.11,NE,56,0.0,2.0,92,0.00,,,0.00,Wunderground v.1.15,2013-01-22 11:50:00,
2013-01-22 03:51:00,33.1,31.0,30.12,NE,56,0.0,2.0,92,0.00,,,0.00,Wunderground v.1.15,2013-01-22 11:51:00,
2013-01-22 03:53:00,33.0,30.9,30.11,NE,56,0.0,2.0,92,0.00,,,0.00,Wunderground v.1.15,2013-01-22 11:53:00,
2013-01-22 03:56:00,33.0,30.9,30.11,NE,56,0.0,2.0,92,0.00,,,0.00,Wunderground v.1.15,2013-01-22 11:56:00,
2013-01-22 03:58:00,33.0,30.9,30.11,NE,56,0.0,2.0,92,0.00,,,0.00,Wunderground v.1.15,2013-01-22 11:58:00,
2013-01-22 04:00:00,33.0,30.9,30.11,NE,56,0.0,2.0,92,0.00,,,0.00,Wunderground v.1.15,2013-01-22 12:00:00,
2013-01-22 04:01:00,33.0,31.2,30.11,NE,56,0.0,2.0,93,0.00,,,0.00,Wunderground v.1.15,2013-01-22 12:01:00,
2013-01-22 04:03:00,33.2,31.4,30.11,NE,56,0.0,2.0,93,0.00,,,0.00,Wunderground v.1.15,2013-01-22 12:03:00,
2013-01-22 04:05:00,33.2,31.4,30.11,NE,56,0.0,2.0,93,0.00,,,0.00,Wunderground v.1.15,2013-01-22 12:05:00,
2013-01-22 04:07:00,33.2,31.4,30.11,ENE,57,0.0,2.0,93,0.00,,,0.00,Wunderground v.1.15,2013-01-22 12:07:00,
2013-01-22 04:08:00,33.2,31.4,30.11,NE,56,0.0,2.0,93,0.00,,,0.00,Wunderground v.1.15,2013-01-22 12:08:00,
2013-01-22 04:10:00,33.2,31.4,30.11,NE,56,0.0,2.0,93,0.00,,,0.00,Wunderground v.1.15,2013-01-22 12:10:00,
2013-01-22 04:14:00,33.3,31.5,30.11,ENE,57,0.0,2.0,93,0.00,,,0.00,Wunderground v.1.15,2013-01-22 12:14:00,
2013-01-22 04:15:00,33.3,31.5,30.11,NE,56,0.0,2.0,93,0.00,,,0.00,Wunderground v.1.15,2013-01-22 12:15:00,
2013-01-22 04:18:00,33.2,31.4,30.11,NE,56,0.0,2.0,93,0.00,,,0.00,Wunderground v.1.15,2013-01-22 12:18:00,
2013-01-22 04:19:00,33.2,31.4,30.11,NE,56,0.0,2.0,93,0.00,,,0.00,Wunderground v.1.15,2013-01-22 12:19:00,
2013-01-22 04:22:00,33.0,30.9,30.11,NE,56,0.0,2.0,92,0.00,,,0.00,Wunderground v.1.15,2013-01-22 12:22:00,
2013-01-22 04:25:00,32.9,30.8,30.11,NE,56,0.0,2.0,92,0.00,,,0.00,Wunderground v.1.15,2013-01-22 12:25:00,
2013-01-22 04:26:00,32.8,30.7,30.11,NE,56,0.0,2.0,92,0.00,,,0.00,Wunderground v.1.15,2013-01-22 12:26:00,
2013-01-22 04:29:00,32.8,31.0,30.11,NE,56,0.0,2.0,93,0.00,,,0.00,Wunderground v.1.15,2013-01-22 12:29:00,
2013-01-22 04:30:00,32.8,31.0,30.11,NE,56,0.0,2.0,93,0.00,,,0.00,Wunderground v.1.15,2013-01-22 12:30:00,
2013-01-22 04:33:00,32.8,31.0,30.11,NE,56,0.0,2.0,93,0.00,,,0.00,Wunderground v.1.15,2013-01-22 12:33:00,
2013-01-22 04:34:00,32.7,30.9,30.11,NE,56,0.0,2.0,93,0.00,,,0.00,Wunderground v.1.15,2013-01-22 12:34:00,
2013-01-22 04:35:00,32.7,30.9,30.11,ENE,57,0.0,2.0,93,0.00,,,0.00,Wunderground v.1.15,2013-01-22 12:35:00,
2013-01-22 04:36:00,32.6,30.8,30.11,NE,56,0.0,2.0,93,0.00,,,0.00,Wunderground v.1.15,2013-01-22 12:36:00,
2013-01-22 04:40:00,32.4,30.3,30.11,NE,56,0.0,2.0,92,0.00,,,0.00,Wunderground v.1.15,2013-01-22 12:40:00,
2013-01-22 04:41:00,32.3,30.2,30.11,ENE,57,0.0,2.0,92,0.00,,,0.00,Wunderground v.1.15,2013-01-22 12:41:00,
2013-01-22 04:43:00,32.3,30.2,30.11,ENE,57,0.0,2.0,92,0.00,,,0.00,Wunderground v.1.15,2013-01-22 12:43:00,
2013-01-22 04:48:00,32.1,30.3,30.11,NE,56,0.0,2.0,93,0.00,,,0.00,Wunderground v.1.15,2013-01-22 12:48:00,
2013-01-22 04:49:00,32.1,30.3,30.11,NE,56,0.0,2.0,93,0.00,,,0.00,Wunderground v.1.15,2013-01-22 12:49:00,
2013-01-22 04:50:00,32.1,30.3,30.11,NE,56,0.0,2.0,93,0.00,,,0.00,Wunderground v.1.15,2013-01-22 12:50:00,
2013-01-22 04:55:00,32.0,30.2,30.12,NE,56,0.0,2.0,93,0.00,,,0.00,Wunderground v.1.15,2013-01-22 12:55:00,
2013-01-22 04:57:00,32.0,30.2,30.11,NE,56,0.0,2.0,93,0.00,,,0.00,Wunderground v.1.15,2013-01-22 12:57:00,
2013-01-22 04:58:00,32.0,30.2,30.11,NE,56,0.0,2.0,93,0.00,,,0.00,Wunderground v.1.15,2013-01-22 12:58:00,
2013-01-22 05:00:00,32.1,30.3,30.12,NE,56,0.0,2.0,93,0.00,,,0.00,Wunderground v.1.15,2013-01-22 13:00:00,
2013-01-22 05:03:00,32.4,30.9,30.11,NE,56,1.0,2.0,94,0.00,,,0.00,Wunderground v.1.15,2013-01-22 13:03:00,
2013-01-22 05:07:00,32.6,31.1,30.11,ENE,57,1.0,2.0,94,0.00,,,0.00,Wunderground v.1.15,2013-01-22 13:07:00,
2013-01-22 05:08:00,32.6,31.1,30.11,NE,56,1.0,2.0,94,0.00,,,0.00,Wunderground v.1.15,2013-01-22 13:08:00,
2013-01-22 05:11:00,32.7,31.2,30.11,NE,56,1.0,2.0,94,0.00,,,0.00,Wunderground v.1.15,2013-01-22 13:11:00,
2013-01-22 05:12:00,32.7,31.2,30.12,NE,56,1.0,2.0,94,0.00,,,0.00,Wunderground v.1.15,2013-01-22 13:12:00,
2013-01-22 05:14:00,32.6,30.8,30.12,NE,56,1.0,2.0,93,0.00,,,0.00,Wunderground v.1.15,2013-01-22 13:14:00,
2013-01-22 05:17:00,32.5,30.7,30.12,NE,56,0.0,2.0,93,0.00,,,0.00,Wunderground v.1.15,2013-01-22 13:17:00,
2013-01-22 05:18:00,32.5,30.7,30.12,NE,56,0.0,2.0,93,0.00,,,0.00,Wunderground v.1.15,2013-01-22 13:18:00,
2013-01-22 05:20:00,32.4,30.6,30.12,ENE,57,0.0,2.0,93,0.00,,,0.00,Wunderground v.1.15,2013-01-22 13:20:00,
2013-01-22 05:21:00,32.4,30.6,30.12,NE,56,0.0,2.0,93,0.00,,,0.00,Wunderground v.1.15,2013-01-22 13:21:00,
2013-01-22 05:24:00,32.2,30.4,30.12,NE,56,0.0,2.0,93,0.00,,,0.00,Wunderground v.1.15,2013-01-22 13:24:00,
2013-01-22 05:26:00,32.1,30.3,30.12,NE,56,0.0,2.0,93,0.00,,,0.00,Wunderground v.1.15,2013-01-22 13:26:00,
2013-01-22 05:29:00,31.9,30.1,30.12,NE,56,0.0,2.0,93,0.00,,,0.00,Wunderground v.1.15,2013-01-22 13:29:00,
2013-01-22 05:31:00,31.7,29.9,30.12,ENE,57,0.0,2.0,93,0.00,,,0.00,Wunderground v.1.15,2013-01-22 13:31:00,
2013-01-22 05:32:00,31.7,29.9,30.12,NE,56,0.0,2.0,93,0.00,,,0.00,Wunderground v.1.15,2013-01-22 13:32:00,
2013-01-22 05:35:00,31.8,30.0,30.12,NE,56,0.0,2.0,93,0.00,,,0.00,Wunderground v.1.15,2013-01-22 13:35:00,
2013-01-22 05:36:00,31.8,30.3,30.12,NE,56,0.0,2.0,94,0.00,,,0.00,Wunderground v.1.15,2013-01-22 13:36:00,
2013-01-22 05:39:00,31.8,30.3,30.12,NE,56,0.0,2.0,94,0.00,,,0.00,Wunderground v.1.15,2013-01-22 13:39:00,
2013-01-22 05:41:00,31.7,29.9,30.13,NE,56,0.0,2.0,93,0.00,,,0.00,Wunderground v.1.15,2013-01-22 13:41:00,
2013-01-22 05:43:00,31.7,29.9,30.12,NE,56,0.0,2.0,93,0.00,,,0.00,Wunderground v.1.15,2013-01-22 13:43:00,
2013-01-22 05:44:00,31.7,29.9,30.13,NE,56,0.0,2.0,93,0.00,,,0.00,Wunderground v.1.15,2013-01-22 13:44:00,
2013-01-22 05:45:00,31.6,29.8,30.13,NE,56,0.0,2.0,93,0.00,,,0.00,Wunderground v.1.15,2013-01-22 13:45:00,
2013-01-22 05:47:00,31.5,29.7,30.13,NE,56,0.0,2.0,93,0.00,,,0.00,Wunderground v.1.15,2013-01-22 13:47:00,
2013-01-22 05:50:00,31.5,29.7,30.12,NE,56,0.0,2.0,93,0.00,,,0.00,Wunderground v.1.15,2013-01-22 13:50:00,
2013-01-22 05:52:00,31.5,29.7,30.12,ENE,57,0.0,2.0,93,0.00,,,0.00,Wunderground v.1.15,2013-01-22 13:52:00,
2013-01-22 05:53:00,31.5,30.0,30.12,NE,56,0.0,2.0,94,0.00,,,0.00,Wunderground v.1.15,2013-01-22 13:53:00,
2013-01-22 05:56:00,31.5,30.0,30.12,NE,56,0.0,2.0,94,0.00,,,0.00,Wunderground v.1.15,2013-01-22 13:56:00,
2013-01-22 05:58:00,31.5,30.0,30.12,ENE,57,0.0,2.0,94,0.00,,,0.00,Wunderground v.1.15,2013-01-22 13:58:00,
2013-01-22 05:59:00,31.5,30.0,30.12,NE,56,0.0,2.0,94,0.00,,,0.00,Wunderground v.1.15,2013-01-22 13:59:00,
2013-01-22 06:03:00,31.2,29.4,30.12,NE,56,0.0,2.0,93,0.00,,,0.00,Wunderground v.1.15,2013-01-22 14:03:00,
2013-01-22 06:04:00,31.1,29.3,30.12,ENE,57,0.0,2.0,93,0.00,,,0.00,Wunderground v.1.15,2013-01-22 14:04:00,
2013-01-22 06:08:00,31.1,29.3,30.12,NE,56,0.0,2.0,93,0.00,,,0.00,Wunderground v.1.15,2013-01-22 14:08:00,
2013-01-22 06:09:00,31.0,29.2,30.12,NE,56,0.0,2.0,93,0.00,,,0.00,Wunderground v.1.15,2013-01-22 14:09:00,
2013-01-22 06:11:00,31.0,29.2,30.12,NE,56,0.0,2.0,93,0.00,,,0.00,Wunderground v.1.15,2013-01-22 14:11:00,
2013-01-22 06:16:00,30.9,29.4,30.12,NE,56,0.0,2.0,94,0.00,,,0.00,Wunderground v.1.15,2013-01-22 14:16:00,
2013-01-22 06:17:00,30.9,29.4,30.12,NE,56,0.0,2.0,94,0.00,,,0.00,Wunderground v.1.15,2013-01-22 14:17:00,
2013-01-22 06:18:00,31.0,29.5,30.12,NE,56,0.0,3.0,94,0.00,,,0.00,Wunderground v.1.15,2013-01-22 14:18:00,
2013-01-22 06:20:00,31.2,29.7,30.12,NE,56,0.0,2.0,94,0.00,,,0.00,Wunderground v.1.15,2013-01-22 14:20:00,
2013-01-22 06:23:00,31.3,29.8,30.12,ENE,57,0.0,2.0,94,0.00,,,0.00,Wunderground v.1.15,2013-01-22 14:23:00,
2013-01-22 06:25:00,31.3,29.8,30.12,NE,56,0.0,2.0,94,0.00,,,0.00,Wunderground v.1.15,2013-01-22 14:25:00,
2013-01-22 06:26:00,31.2,29.7,30.13,NE,56,0.0,2.0,94,0.00,,,0.00,Wunderground v.1.15,2013-01-22 14:26:00,
2013-01-22 06:31:00,31.0,29.2,30.13,NE,56,0.0,2.0,93,0.00,,,0.00,Wunderground v.1.15,2013-01-22 14:31:00,
2013-01-22 06:32:00,31.0,29.2,30.13,NE,56,0.0,2.0,93,0.00,,,0.00,Wunderground v.1.15,2013-01-22 14:32:00,
2013-01-22 06:33:00,31.0,29.2,30.12,NE,56,0.0,2.0,93,0.00,,,0.00,Wunderground v.1.15,2013-01-22 14:33:00,
2013-01-22 06:36:00,30.9,29.4,30.12,NE,56,0.0,2.0,94,0.00,,,0.00,Wunderground v.1.15,2013-01-22 14:36:00,
2013-01-22 06:38:00,30.8,29.3,30.12,NE,56,0.0,2.0,94,0.00,,,0.00,Wunderground v.1.15,2013-01-22 14:38:00,
2013-01-22 06:41:00,30.9,29.4,30.12,ENE,57,0.0,2.0,94,0.00,,,0.00,Wunderground v.1.15,2013-01-22 14:41:00,
2013-01-22 06:43:00,30.8,29.3,30.12,NE,56,0.0,2.0,94,0.00,,,0.00,Wunderground v.1.15,2013-01-22 14:43:00,
2013-01-22 06:45:00,30.7,29.2,30.13,NE,56,0.0,2.0,94,0.00,,,0.00,Wunderground v.1.15,2013-01-22 14:45:00,
2013-01-22 06:48:00,30.5,29.0,30.13,ENE,57,0.0,2.0,94,0.00,,,0.00,Wunderground v.1.15,2013-01-22 14:48:00,
2013-01-22 06:49:00,30.5,29.0,30.13,ENE,57,0.0,2.0,94,0.00,,,0.00,Wunderground v.1.15,2013-01-22 14:49:00,
2013-01-22 06:50:00,30.5,28.7,30.13,NE,56,0.0,2.0,93,0.00,,,0.00,Wunderground v.1.15,2013-01-22 14:50:00,
2013-01-22 06:51:00,30.5,29.0,30.13,NE,56,0.0,2.0,94,0.00,,,0.00,Wunderground v.1.15,2013-01-22 14:51:00,
2013-01-22 06:53:00,30.5,29.0,30.13,NE,56,0.0,2.0,94,0.00,,,0.00,Wunderground v.1.15,2013-01-22 14:53:00,
2013-01-22 06:58:00,30.5,29.0,30.13,NE,56,0.0,2.0,94,0.00,,,0.00,Wunderground v.1.15,2013-01-22 14:58:00,
2013-01-22 06:59:00,30.5,29.0,30.13,ENE,57,0.0,2.0,94,0.00,,,0.00,Wunderground v.1.15,2013-01-22 14:59:00,
2013-01-22 07:00:00,30.5,29.0,30.13,NE,56,0.0,2.0,94,0.00,,,0.00,Wunderground v.1.15,2013-01-22 15:00:00,
2013-01-22 07:03:00,30.4,28.9,30.13,ENE,57,0.0,2.0,94,0.00,,,0.00,Wunderground v.1.15,2013-01-22 15:03:00,
2013-01-22 07:05:00,30.4,28.9,30.13,NE,56,0.0,2.0,94,0.00,,,0.00,Wunderground v.1.15,2013-01-22 15:05:00,
2013-01-22 07:06:00,30.3,28.8,30.13,NE,56,0.0,3.0,94,0.00,,,0.00,Wunderground v.1.15,2013-01-22 15:06:00,
2013-01-22 07:09:00,30.3,28.8,30.13,NE,56,0.0,3.0,94,0.00,,,0.00,Wunderground v.1.15,2013-01-22 15:09:00,
2013-01-22 07:11:00,30.4,28.9,30.13,ENE,57,1.0,2.0,94,0.00,,,0.00,Wunderground v.1.15,2013-01-22 15:11:00,
2013-01-22 07:12:00,30.4,28.9,30.13,NE,56,1.0,2.0,94,0.00,,,0.00,Wunderground v.1.15,2013-01-22 15:12:00,
2013-01-22 07:13:00,30.4,28.9,30.13,NE,56,1.0,2.0,94,0.00,,,0.00,Wunderground v.1.15,2013-01-22 15:13:00,
2013-01-22 07:15:00,30.4,28.9,30.13,NE,56,1.0,2.0,94,0.00,,,0.00,Wunderground v.1.15,2013-01-22 15:15:00,
2013-01-22 07:17:00,30.3,28.8,30.13,NE,56,0.0,2.0,94,0.00,,,0.00,Wunderground v.1.15,2013-01-22 15:17:00,
2013-01-22 07:19:00,30.3,28.8,30.13,ENE,57,0.0,2.0,94,0.00,,,0.00,Wunderground v.1.15,2013-01-22 15:19:00,
2013-01-22 07:20:00,30.3,28.8,30.13,NE,56,0.0,2.0,94,0.00,,,0.00,Wunderground v.1.15,2013-01-22 15:20:00,
2013-01-22 07:22:00,30.3,28.8,30.13,NE,56,0.0,2.0,94,0.00,,,0.00,Wunderground v.1.15,2013-01-22 15:22:00,
2013-01-22 07:23:00,30.3,28.8,30.13,NE,56,0.0,2.0,94,0.00,,,0.00,Wunderground v.1.15,2013-01-22 15:23:00,
2013-01-22 07:27:00,30.3,28.8,30.14,NE,56,0.0,2.0,94,0.00,,,0.00,Wunderground v.1.15,2013-01-22 15:27:00,
2013-01-22 07:28:00,30.3,28.8,30.14,NE,56,0.0,2.0,94,0.00,,,0.00,Wunderground v.1.15,2013-01-22 15:28:00,
2013-01-22 07:30:00,30.4,28.9,30.14,ENE,57,0.0,2.0,94,0.00,,,0.00,Wunderground v.1.15,2013-01-22 15:30:00,
2013-01-22 07:31:00,30.5,29.0,30.14,NE,56,0.0,2.0,94,0.00,,,0.00,Wunderground v.1.15,2013-01-22 15:31:00,
2013-01-22 07:33:00,30.6,29.1,30.14,NE,56,0.0,2.0,94,0.00,,,0.00,Wunderground v.1.15,2013-01-22 15:33:00,
2013-01-22 07:36:00,30.8,29.5,30.14,NE,56,0.0,2.0,95,0.00,,,0.00,Wunderground v.1.15,2013-01-22 15:36:00,
2013-01-22 07:38:00,30.8,29.3,30.14,NE,54,0.0,2.0,94,0.00,,,0.00,Wunderground v.1.15,2013-01-22 15:38:00,
2013-01-22 07:39:00,30.8,29.3,30.14,NE,55,0.0,2.0,94,0.00,,,0.00,Wunderground v.1.15,2013-01-22 15:39:00,
2013-01-22 07:44:00,31.0,29.5,30.14,NE,55,0.0,2.0,94,0.00,,,0.00,Wunderground v.1.15,2013-01-22 15:44:00,
2013-01-22 07:45:00,31.0,29.5,30.14,NE,55,0.0,2.0,94,0.00,,,0.00,Wunderground v.1.15,2013-01-22 15:45:00,
2013-01-22 07:50:00,31.4,30.1,30.14,NE,55,0.0,2.0,95,0.00,,,0.00,Wunderground v.1.15,2013-01-22 15:50:00,
2013-01-22 07:51:00,31.4,30.1,30.14,NE,55,0.0,2.0,95,0.00,,,0.00,Wunderground v.1.15,2013-01-22 15:51:00,
2013-01-22 07:52:00,31.5,30.2,30.14,NE,55,0.0,2.0,95,0.00,,,0.00,Wunderground v.1.15,2013-01-22 15:52:00,
2013-01-22 07:54:00,31.6,30.3,30.14,NE,55,0.0,2.0,95,0.00,,,0.00,Wunderground v.1.15,2013-01-22 15:54:00,
2013-01-22 07:56:00,31.8,30.5,30.14,NE,55,0.0,3.0,95,0.00,,,0.00,Wunderground v.1.15,2013-01-22 15:56:00,
2013-01-22 07:57:00,31.9,30.4,30.14,NE,55,1.0,3.0,94,0.00,,,0.00,Wunderground v.1.15,2013-01-22 15:57:00,
2013-01-22 07:58:00,32.1,30.8,30.14,NE,55,1.0,3.0,95,0.00,,,0.00,Wunderground v.1.15,2013-01-22 15:58:00,
2013-01-22 08:02:00,32.7,31.4,30.14,NE,55,1.0,2.0,95,0.00,,,0.00,Wunderground v.1.15,2013-01-22 16:02:00,
2013-01-22 08:03:00,32.9,31.6,30.13,NE,55,1.0,2.0,95,0.00,,,0.00,Wunderground v.1.15,2013-01-22 16:03:00,
2013-01-22 08:04:00,33.0,31.7,30.13,NE,55,1.0,3.0,95,0.00,,,0.00,Wunderground v.1.15,2013-01-22 16:04:00,
2013-01-22 08:08:00,33.5,32.2,30.14,NE,55,1.0,3.0,95,0.00,,,0.00,Wunderground v.1.15,2013-01-22 16:08:00,
2013-01-22 08:10:00,33.6,32.1,30.14,NE,55,1.0,1.0,94,0.00,,,0.00,Wunderground v.1.15,2013-01-22 16:10:00,
2013-01-22 08:12:00,33.7,32.2,30.13,NE,55,0.0,2.0,94,0.00,,,0.00,Wunderground v.1.15,2013-01-22 16:12:00,
2013-01-22 08:14:00,33.9,32.4,30.13,NE,55,0.0,2.0,94,0.00,,,0.00,Wunderground v.1.15,2013-01-22 16:14:00,
2013-01-22 08:17:00,34.1,32.6,30.13,NE,55,0.0,2.0,94,0.00,,,0.00,Wunderground v.1.15,2013-01-22 16:17:00,
2013-01-22 08:19:00,34.2,32.7,30.13,NE,55,0.0,2.0,94,0.00,,,0.00,Wunderground v.1.15,2013-01-22 16:19:00,
2013-01-22 08:20:00,34.2,32.7,30.13,NE,55,0.0,2.0,94,0.00,,,0.00,Wunderground v.1.15,2013-01-22 16:20:00,
2013-01-22 08:21:00,34.3,32.8,30.13,NE,55,0.0,2.0,94,0.00,,,0.00,Wunderground v.1.15,2013-01-22 16:21:00,
2013-01-22 08:25:00,34.4,32.6,30.13,NE,55,0.0,2.0,93,0.00,,,0.00,Wunderground v.1.15,2013-01-22 16:25:00,
2013-01-22 08:27:00,34.5,32.7,30.13,NE,55,0.0,2.0,93,0.00,,,0.00,Wunderground v.1.15,2013-01-22 16:27:00,
2013-01-22 08:31:00,34.9,33.1,30.13,NE,55,0.0,2.0,93,0.00,,,0.00,Wunderground v.1.15,2013-01-22 16:31:00,
2013-01-22 08:32:00,35.1,33.3,30.13,NE,55,0.0,2.0,93,0.00,,,0.00,Wunderground v.1.15,2013-01-22 16:32:00,
2013-01-22 08:33:00,35.2,33.4,30.13,NE,55,0.0,2.0,93,0.00,,,0.00,Wunderground v.1.15,2013-01-22 16:33:00,
2013-01-22 08:35:00,35.4,33.6,30.13,NE,55,0.0,2.0,93,0.00,,,0.00,Wunderground v.1.15,2013-01-22 16:35:00,
2013-01-22 08:38:00,35.9,33.8,30.13,NE,55,1.0,2.0,92,0.00,,,0.00,Wunderground v.1.15,2013-01-22 16:38:00,
2013-01-22 08:40:00,36.2,34.1,30.13,NE,55,1.0,1.0,92,0.00,,,0.00,Wunderground v.1.15,2013-01-22 16:40:00,
2013-01-22 08:43:00,36.7,34.6,30.13,NE,55,1.0,2.0,92,0.00,,,0.00,Wunderground v.1.15,2013-01-22 16:43:00,
2013-01-22 08:44:00,36.9,34.8,30.13,NE,55,1.0,2.0,92,0.00,,,0.00,Wunderground v.1.15,2013-01-22 16:44:00,
2013-01-22 08:48:00,37.6,35.5,30.13,NE,55,0.0,2.0,92,0.00,,,0.00,Wunderground v.1.15,2013-01-22 16:48:00,
2013-01-22 08:50:00,37.9,35.5,30.13,NE,55,1.0,2.0,91,0.00,,,0.00,Wunderground v.1.15,2013-01-22 16:50:00,
2013-01-22 08:51:00,38.1,35.7,30.13,NE,55,1.0,2.0,91,0.00,,,0.00,Wunderground v.1.15,2013-01-22 16:51:00,
2013-01-22 08:54:00,38.2,35.5,30.13,NE,55,1.0,3.0,90,0.00,,,0.00,Wunderground v.1.15,2013-01-22 16:54:00,
2013-01-22 08:55:00,38.1,34.9,30.13,NE,55,1.0,3.0,88,0.00,,,0.00,Wunderground v.1.15,2013-01-22 16:55:00,
2013-01-22 08:59:00,37.9,34.7,30.13,NE,55,2.0,3.0,88,0.00,,,0.00,Wunderground v.1.15,2013-01-22 16:59:00,
2013-01-22 09:00:00,37.9,34.9,30.13,NE,55,2.0,2.0,89,0.00,,,0.00,Wunderground v.1.15,2013-01-22 17:00:00,
2013-01-22 09:02:00,38.0,35.0,30.13,NE,55,1.0,2.0,89,0.00,,,0.00,Wunderground v.1.15,2013-01-22 17:02:00,
2013-01-22 09:03:00,38.0,35.0,30.13,NE,55,1.0,2.0,89,0.00,,,0.00,Wunderground v.1.15,2013-01-22 17:03:00,
2013-01-22 09:05:00,38.2,35.2,30.13,NE,55,1.0,2.0,89,0.00,,,0.00,Wunderground v.1.15,2013-01-22 17:05:00,
2013-01-22 09:07:00,38.4,35.4,30.13,NE,55,1.0,2.0,89,0.00,,,0.00,Wunderground v.1.15,2013-01-22 17:07:00,
2013-01-22 09:09:00,38.6,35.6,30.13,NE,55,1.0,2.0,89,0.00,,,0.00,Wunderground v.1.15,2013-01-22 17:09:00,
2013-01-22 09:10:00,38.6,35.6,30.13,NE,55,1.0,2.0,89,0.00,,,0.00,Wunderground v.1.15,2013-01-22 17:10:00,
2013-01-22 09:14:00,39.0,35.7,30.13,NE,55,1.0,2.0,88,0.00,,,0.00,Wunderground v.1.15,2013-01-22 17:14:00,
2013-01-22 09:18:00,39.6,36.3,30.13,NE,55,1.0,2.0,88,0.00,,,0.00,Wunderground v.1.15,2013-01-22 17:18:00,
2013-01-22 09:20:00,39.9,36.6,30.13,NE,55,1.0,1.0,88,0.00,,,0.00,Wunderground v.1.15,2013-01-22 17:20:00,
2013-01-22 09:21:00,40.1,36.8,30.13,NE,55,1.0,2.0,88,0.00,,,0.00,Wunderground v.1.15,2013-01-22 17:21:00,
2013-01-22 09:25:00,40.9,37.0,30.13,NE,55,1.0,2.0,86,0.00,,,0.00,Wunderground v.1.15,2013-01-22 17:25:00,
2013-01-22 09:27:00,41.3,37.4,30.13,NE,55,1.0,2.0,86,0.00,,,0.00,Wunderground v.1.15,2013-01-22 17:27:00,
2013-01-22 09:30:00,41.8,37.6,30.13,NE,55,1.0,1.0,85,0.00,,,0.00,Wunderground v.1.15,2013-01-22 17:30:00,
2013-01-22 09:31:00,42.0,37.8,30.13,NE,55,1.0,2.0,85,0.00,,,0.00,Wunderground v.1.15,2013-01-22 17:31:00,
2013-01-22 09:33:00,42.3,38.1,30.13,NE,55,1.0,2.0,85,0.00,,,0.00,Wunderground v.1.15,2013-01-22 17:33:00,
2013-01-22 09:35:00,42.6,37.8,30.14,NE,55,0.0,2.0,83,0.00,,,0.00,Wunderground v.1.15,2013-01-22 17:35:00,
2013-01-22 09:39:00,43.2,38.1,30.14,NE,55,0.0,2.0,82,0.00,,,0.00,Wunderground v.1.15,2013-01-22 17:39:00,
2013-01-22 09:41:00,43.6,38.2,30.14,NE,55,0.0,2.0,81,0.00,,,0.00,Wunderground v.1.15,2013-01-22 17:41:00,
2013-01-22 09:42:00,43.8,38.0,30.14,NE,55,0.0,2.0,80,0.00,,,0.00,Wunderground v.1.15,2013-01-22 17:42:00,
2013-01-22 09:43:00,43.9,38.1,30.14,NE,55,0.0,2.0,80,0.00,,,0.00,Wunderground v.1.15,2013-01-22 17:43:00,
2013-01-22 09:48:00,44.8,38.4,30.14,NE,55,0.0,2.0,78,0.00,,,0.00,Wunderground v.1.15,2013-01-22 17:48:00,
2013-01-22 09:49:00,45.0,38.6,30.14,NE,55,0.0,2.0,78,0.00,,,0.00,Wunderground v.1.15,2013-01-22 17:49:00,
2013-01-22 09:50:00,45.2,38.4,30.14,NE,55,0.0,2.0,77,0.00,,,0.00,Wunderground v.1.15,2013-01-22 17:50:00,
2013-01-22 09:53:00,45.8,38.3,30.14,NE,55,0.0,2.0,75,0.00,,,0.00,Wunderground v.1.15,2013-01-22 17:53:00,
2013-01-22 09:55:00,46.2,38.4,30.14,NE,55,0.0,2.0,74,0.00,,,0.00,Wunderground v.1.15,2013-01-22 17:55:00,
2013-01-22 09:56:00,46.3,38.1,30.14,NE,55,0.0,2.0,73,0.00,,,0.00,Wunderground v.1.15,2013-01-22 17:56:00,
2013-01-22 09:58:00,46.4,37.9,30.14,NE,55,0.0,2.0,72,0.00,,,0.00,Wunderground v.1.15,2013-01-22 17:58:00,
2013-01-22 09:59:00,46.4,37.9,30.14,NE,55,0.0,2.0,72,0.00,,,0.00,Wunderground v.1.15,2013-01-22 17:59:00,
2013-01-22 10:04:00,46.5,37.6,30.14,NE,55,0.0,2.0,71,0.00,,,0.00,Wunderground v.1.15,2013-01-22 18:04:00,
2013-01-22 10:05:00,46.5,37.6,30.14,NE,55,0.0,2.0,71,0.00,,,0.00,Wunderground v.1.15,2013-01-22 18:05:00,
2013-01-22 10:06:00,46.6,37.3,30.14,NE,55,1.0,2.0,70,0.00,,,0.00,Wunderground v.1.15,2013-01-22 18:06:00,
2013-01-22 10:07:00,46.6,37.3,30.14,NE,55,1.0,2.0,70,0.00,,,0.00,Wunderground v.1.15,2013-01-22 18:07:00,
2013-01-22 10:11:00,46.5,38.0,30.14,NE,55,1.0,2.0,72,0.00,,,0.00,Wunderground v.1.15,2013-01-22 18:11:00,
2013-01-22 10:13:00,46.7,38.1,30.14,NE,55,1.0,2.0,72,0.00,,,0.00,Wunderground v.1.15,2013-01-22 18:13:00,
2013-01-22 10:15:00,46.7,38.1,30.14,NE,55,1.0,2.0,72,0.00,,,0.00,Wunderground v.1.15,2013-01-22 18:15:00,
2013-01-22 10:20:00,46.9,37.3,30.15,NE,55,1.0,2.0,69,0.00,,,0.00,Wunderground v.1.15,2013-01-22 18:20:00,
2013-01-22 10:23:00,46.9,37.3,30.14,NE,55,2.0,2.0,69,0.00,,,0.00,Wunderground v.1.15,2013-01-22 18:23:00,
2013-01-22 10:27:00,47.1,37.4,30.14,NE,55,1.0,2.0,69,0.00,,,0.00,Wunderground v.1.15,2013-01-22 18:27:00,
2013-01-22 10:28:00,47.2,37.5,30.15,NE,55,1.0,2.0,69,0.00,,,0.00,Wunderground v.1.15,2013-01-22 18:28:00,
2013-01-22 10:30:00,47.2,37.5,30.15,NE,55,1.0,1.0,69,0.00,,,0.00,Wunderground v.1.15,2013-01-22 18:30:00,
2013-01-22 10:33:00,47.5,37.8,30.15,NE,55,1.0,2.0,69,0.00,,,0.00,Wunderground v.1.15,2013-01-22 18:33:00,
2013-01-22 10:34:00,47.6,37.9,30.15,NE,55,1.0,2.0,69,0.00,,,0.00,Wunderground v.1.15,2013-01-22 18:34:00,
2013-01-22 10:35:00,47.7,38.0,30.15,NE,55,1.0,2.0,69,0.00,,,0.00,Wunderground v.1.15,2013-01-22 18:35:00,
2013-01-22 10:36:00,47.9,38.2,30.15,NE,55,1.0,2.0,69,0.00,,,0.00,Wunderground v.1.15,2013-01-22 18:36:00,
2013-01-22 10:41:00,48.5,38.4,30.15,NE,55,0.0,2.0,68,0.00,,,0.00,Wunderground v.1.15,2013-01-22 18:41:00,
2013-01-22 10:42:00,48.7,38.6,30.15,NE,55,0.0,2.0,68,0.00,,,0.00,Wunderground v.1.15,2013-01-22 18:42:00,
2013-01-22 10:43:00,48.8,38.7,30.15,NE,55,0.0,3.0,68,0.00,,,0.00,Wunderground v.1.15,2013-01-22 18:43:00,
2013-01-22 10:47:00,49.2,39.1,30.15,NE,55,1.0,3.0,68,0.00,,,0.00,Wunderground v.1.15,2013-01-22 18:47:00,
2013-01-22 10:48:00,49.3,38.8,30.15,NE,55,1.0,3.0,67,0.00,,,0.00,Wunderground v.1.15,2013-01-22 18:48:00,
2013-01-22 10:50:00,49.5,39.4,30.15,NE,55,1.0,1.0,68,0.00,,,0.00,Wunderground v.1.15,2013-01-22 18:50:00,
2013-01-22 10:54:00,49.9,39.4,30.15,NE,55,1.0,2.0,67,0.00,,,0.00,Wunderground v.1.15,2013-01-22 18:54:00,
2013-01-22 10:56:00,50.2,39.7,30.15,NE,55,0.0,2.0,67,0.00,,,0.00,Wunderground v.1.15,2013-01-22 18:56:00,
2013-01-22 10:57:00,50.3,39.8,30.15,NE,55,0.0,2.0,67,0.00,,,0.00,Wunderground v.1.15,2013-01-22 18:57:00,
2013-01-22 11:00:00,50.8,39.8,30.15,NE,55,0.0,3.0,66,0.00,,,0.00,Wunderground v.1.15,2013-01-22 19:00:00,
2013-01-22 11:02:00,50.8,39.5,30.14,NE,55,1.0,3.0,65,0.00,,,0.00,Wunderground v.1.15,2013-01-22 19:02:00,
2013-01-22 11:03:00,50.9,39.5,30.14,NE,55,1.0,3.0,65,0.00,,,0.00,Wunderground v.1.15,2013-01-22 19:03:00,
2013-01-22 11:04:00,50.9,39.5,30.15,NE,55,1.0,3.0,65,0.00,,,0.00,Wunderground v.1.15,2013-01-22 19:04:00,
2013-01-22 11:09:00,51.3,39.9,30.15,NE,55,1.0,3.0,65,0.00,,,0.00,Wunderground v.1.15,2013-01-22 19:09:00,
2013-01-22 11:10:00,51.3,39.9,30.15,NE,55,1.0,2.0,65,0.00,,,0.00,Wunderground v.1.15,2013-01-22 19:10:00,
2013-01-22 11:11:00,51.4,40.0,30.15,NE,55,1.0,2.0,65,0.00,,,0.00,Wunderground v.1.15,2013-01-22 19:11:00,
2013-01-22 11:17:00,52.1,40.3,30.15,NE,55,1.0,2.0,64,0.00,,,0.00,Wunderground v.1.15,2013-01-22 19:17:00,
2013-01-22 11:18:00,52.1,40.3,30.15,NE,55,1.0,2.0,64,0.00,,,0.00,Wunderground v.1.15,2013-01-22 19:18:00,
2013-01-22 11:19:00,52.3,40.5,30.14,NE,55,1.0,2.0,64,0.00,,,0.00,Wunderground v.1.15,2013-01-22 19:19:00,
2013-01-22 11:22:00,52.7,40.9,30.15,NE,55,0.0,2.0,64,0.00,,,0.00,Wunderground v.1.15,2013-01-22 19:22:00,
2013-01-22 11:23:00,52.9,41.0,30.15,NE,55,0.0,2.0,64,0.00,,,0.00,Wunderground v.1.15,2013-01-22 19:23:00,
2013-01-22 11:25:00,53.1,41.2,30.14,NE,55,0.0,2.0,64,0.00,,,0.00,Wunderground v.1.15,2013-01-22 19:25:00,
2013-01-22 11:29:00,53.5,40.8,30.14,NE,55,0.0,2.0,62,0.00,,,0.00,Wunderground v.1.15,2013-01-22 19:29:00,
2013-01-22 11:30:00,53.6,40.9,30.14,NE,55,0.0,2.0,62,0.00,,,0.00,Wunderground v.1.15,2013-01-22 19:30:00,
2013-01-22 11:33:00,53.8,41.1,30.14,NE,55,0.0,3.0,62,0.00,,,0.00,Wunderground v.1.15,2013-01-22 19:33:00,
2013-01-22 11:35:00,54.1,41.4,30.14,NE,55,1.0,3.0,62,0.00,,,0.00,Wunderground v.1.15,2013-01-22 19:35:00,
2013-01-22 11:38:00,54.3,41.1,30.14,NE,55,1.0,3.0,61,0.00,,,0.00,Wunderground v.1.15,2013-01-22 19:38:00,
2013-01-22 11:39:00,54.4,41.2,30.13,NE,55,1.0,3.0,61,0.00,,,0.00,Wunderground v.1.15,2013-01-22 19:39:00,
2013-01-22 11:40:00,54.4,41.2,30.13,NE,55,1.0,1.0,61,0.00,,,0.00,Wunderground v.1.15,2013-01-22 19:40:00,
2013-01-22 11:44:00,54.9,41.3,30.13,NE,55,1.0,2.0,60,0.00,,,0.00,Wunderground v.1.15,2013-01-22 19:44:00,
2013-01-22 11:45:00,54.9,41.3,30.13,NE,55,1.0,3.0,60,0.00,,,0.00,Wunderground v.1.15,2013-01-22 19:45:00,
2013-01-22 11:46:00,55.0,40.9,30.13,NE,55,1.0,3.0,59,0.00,,,0.00,Wunderground v.1.15,2013-01-22 19:46:00,
2013-01-22 11:47:00,55.0,41.4,30.12,NE,55,1.0,3.0,60,0.00,,,0.00,Wunderground v.1.15,2013-01-22 19:47:00,
2013-01-22 11:50:00,55.2,41.5,30.12,NE,55,2.0,2.0,60,0.00,,,0.00,Wunderground v.1.15,2013-01-22 19:50:00,
2013-01-22 11:53:00,55.3,41.2,30.12,NE,55,2.0,2.0,59,0.00,,,0.00,Wunderground v.1.15,2013-01-22 19:53:00,
2013-01-22 11:55:00,55.4,41.3,30.12,NE,55,2.0,2.0,59,0.00,,,0.00,Wunderground v.1.15,2013-01-22 19:55:00,
2013-01-22 11:57:00,55.5,41.4,30.12,NE,55,1.0,2.0,59,0.00,,,0.00,Wunderground v.1.15,2013-01-22 19:57:00,
2013-01-22 12:00:00,55.7,41.6,30.12,NE,55,1.0,2.0,59,0.00,,,0.00,Wunderground v.1.15,2013-01-22 20:00:00,
2013-01-22 12:02:00,55.8,41.2,30.11,NE,55,1.0,3.0,58,0.00,,,0.00,Wunderground v.1.15,2013-01-22 20:02:00,
2013-01-22 12:03:00,55.8,41.2,30.11,NE,55,1.0,3.0,58,0.00,,,0.00,Wunderground v.1.15,2013-01-22 20:03:00,
2013-01-22 12:05:00,55.9,41.3,30.11,NE,55,1.0,3.0,58,0.00,,,0.00,Wunderground v.1.15,2013-01-22 20:05:00,
2013-01-22 12:08:00,56.2,41.6,30.11,NE,55,1.0,3.0,58,0.00,,,0.00,Wunderground v.1.15,2013-01-22 20:08:00,
2013-01-22 12:11:00,56.6,42.0,30.11,NE,55,1.0,2.0,58,0.00,,,0.00,Wunderground v.1.15,2013-01-22 20:11:00,
2013-01-22 12:13:00,56.8,41.7,30.11,NE,55,0.0,2.0,57,0.00,,,0.00,Wunderground v.1.15,2013-01-22 20:13:00,
2013-01-22 12:16:00,57.0,41.9,30.11,NE,55,0.0,2.0,57,0.00,,,0.00,Wunderground v.1.15,2013-01-22 20:16:00,
2013-01-22 12:17:00,57.1,42.0,30.11,NE,55,0.0,2.0,57,0.00,,,0.00,Wunderground v.1.15,2013-01-22 20:17:00,
2013-01-22 12:19:00,57.3,42.2,30.11,NE,55,0.0,2.0,57,0.00,,,0.00,Wunderground v.1.15,2013-01-22 20:19:00,
2013-01-22 12:21:00,57.4,42.3,30.11,NE,55,1.0,5.0,57,0.00,,,0.00,Wunderground v.1.15,2013-01-22 20:21:00,
2013-01-22 12:23:00,57.6,42.5,30.10,NE,55,1.0,5.0,57,0.00,,,0.00,Wunderground v.1.15,2013-01-22 20:23:00,
2013-01-22 12:25:00,57.6,42.0,30.10,ENE,63,2.0,5.0,56,0.00,,,0.00,Wunderground v.1.15,2013-01-22 20:25:00,
2013-01-22 12:26:00,57.6,41.5,30.10,East,94,2.0,5.0,55,0.00,,,0.00,Wunderground v.1.15,2013-01-22 20:26:00,
2013-01-22 12:28:00,57.5,41.4,30.10,South,169,3.0,5.0,55,0.00,,,0.00,Wunderground v.1.15,2013-01-22 20:28:00,
2013-01-22 12:30:00,57.6,41.5,30.10,South,184,3.0,5.0,55,0.00,,,0.00,Wunderground v.1.15,2013-01-22 20:30:00,
2013-01-22 12:31:00,57.6,41.5,30.10,South,183,4.0,5.0,55,0.00,,,0.00,Wunderground v.1.15,2013-01-22 20:31:00,
2013-01-22 12:33:00,57.6,41.5,30.10,South,183,3.0,5.0,55,0.00,,,0.00,Wunderground v.1.15,2013-01-22 20:33:00,
2013-01-22 12:34:00,57.6,42.0,30.10,South,184,3.0,5.0,56,0.00,,,0.00,Wunderground v.1.15,2013-01-22 20:34:00,
2013-01-22 12:37:00,57.9,41.3,30.09,SE,129,3.0,6.0,54,0.00,,,0.00,Wunderground v.1.15,2013-01-22 20:37:00,
2013-01-22 12:38:00,57.9,41.3,30.09,ESE,118,3.0,6.0,54,0.00,,,0.00,Wunderground v.1.15,2013-01-22 20:38:00,
2013-01-22 12:41:00,58.0,41.4,30.09,ESE,118,3.0,3.0,54,0.00,,,0.00,Wunderground v.1.15,2013-01-22 20:41:00,
2013-01-22 12:43:00,58.1,41.5,30.09,SSE,152,3.0,4.0,54,0.00,,,0.00,Wunderground v.1.15,2013-01-22 20:43:00,
2013-01-22 12:44:00,58.1,42.0,30.09,SSE,152,3.0,4.0,55,0.00,,,0.00,Wunderground v.1.15,2013-01-22 20:44:00,
2013-01-22 12:48:00,58.4,42.3,30.09,SSE,160,3.0,4.0,55,0.00,,,0.00,Wunderground v.1.15,2013-01-22 20:48:00,
2013-01-22 12:49:00,58.4,42.3,30.09,SSE,159,3.0,4.0,55,0.00,,,0.00,Wunderground v.1.15,2013-01-22 20:49:00,
2013-01-22 12:50:00,58.5,42.4,30.09,SSE,167,2.0,5.0,55,0.00,,,0.00,Wunderground v.1.15,2013-01-22 20:50:00,
2013-01-22 12:53:00,58.7,42.1,30.09,SE,145,3.0,6.0,54,0.00,,,0.00,Wunderground v.1.15,2013-01-22 20:53:00,
2013-01-22 12:55:00,58.8,42.7,30.09,SSE,160,4.0,6.0,55,0.00,,,0.00,Wunderground v.1.15,2013-01-22 20:55:00,
2013-01-22 12:56:00,58.8,42.2,30.08,South,170,4.0,6.0,54,0.00,,,0.00,Wunderground v.1.15,2013-01-22 20:56:00,
2013-01-22 12:58:00,58.9,42.8,30.08,South,182,4.0,7.0,55,0.00,,,0.00,Wunderground v.1.15,2013-01-22 20:58:00,
2013-01-22 13:04:00,59.2,42.1,30.08,South,177,5.0,8.0,53,0.00,,,0.00,Wunderground v.1.15,2013-01-22 21:04:00,
2013-01-22 13:05:00,59.2,42.1,30.08,South,169,5.0,8.0,53,0.00,,,0.00,Wunderground v.1.15,2013-01-22 21:05:00,
2013-01-22 13:09:00,59.2,42.1,30.08,South,169,6.0,8.0,53,0.00,,,0.00,Wunderground v.1.15,2013-01-22 21:09:00,
2013-01-22 13:12:00,59.3,42.2,30.08,South,172,6.0,8.0,53,0.00,,,0.00,Wunderground v.1.15,2013-01-22 21:12:00,
2013-01-22 13:13:00,59.3,42.2,30.08,South,171,6.0,8.0,53,0.00,,,0.00,Wunderground v.1.15,2013-01-22 21:13:00,
2013-01-22 13:15:00,59.6,41.9,30.08,South,187,6.0,8.0,52,0.00,,,0.00,Wunderground v.1.15,2013-01-22 21:15:00,
2013-01-22 13:18:00,59.9,41.7,30.08,SSE,166,6.0,8.0,51,0.00,,,0.00,Wunderground v.1.15,2013-01-22 21:18:00,
2013-01-22 13:19:00,59.9,41.2,30.08,South,170,6.0,8.0,50,0.00,,,0.00,Wunderground v.1.15,2013-01-22 21:19:00,
2013-01-22 13:24:00,59.8,40.6,30.07,South,172,6.0,6.0,49,0.00,,,0.00,Wunderground v.1.15,2013-01-22 21:24:00,
2013-01-22 13:25:00,59.7,40.0,30.07,South,173,6.0,6.0,48,0.00,,,0.00,Wunderground v.1.15,2013-01-22 21:25:00,
2013-01-22 13:28:00,59.8,41.6,30.07,SSE,152,6.0,8.0,51,0.00,,,0.00,Wunderground v.1.15,2013-01-22 21:28:00,
2013-01-22 13:30:00,59.8,41.1,30.07,SE,141,6.0,9.0,50,0.00,,,0.00,Wunderground v.1.15,2013-01-22 21:30:00,
2013-01-22 13:32:00,59.9,41.7,30.06,SSE,154,7.0,9.0,51,0.00,,,0.00,Wunderground v.1.15,2013-01-22 21:32:00,
2013-01-22 13:33:00,60.0,41.8,30.06,SE,130,7.0,9.0,51,0.00,,,0.00,Wunderground v.1.15,2013-01-22 21:33:00,
2013-01-22 13:35:00,60.1,41.4,30.06,SE,125,7.0,9.0,50,0.00,,,0.00,Wunderground v.1.15,2013-01-22 21:35:00,
2013-01-22 13:39:00,60.4,42.2,30.06,SSE,149,7.0,11.0,51,0.00,,,0.00,Wunderground v.1.15,2013-01-22 21:39:00,
2013-01-22 13:42:00,60.5,41.2,30.06,SE,134,7.0,7.0,49,0.00,,,0.00,Wunderground v.1.15,2013-01-22 21:42:00,
2013-01-22 13:43:00,60.5,41.8,30.05,SSE,147,7.0,7.0,50,0.00,,,0.00,Wunderground v.1.15,2013-01-22 21:43:00,
2013-01-22 13:45:00,60.7,41.9,30.05,SSE,152,6.0,8.0,50,0.00,,,0.00,Wunderground v.1.15,2013-01-22 21:45:00,
2013-01-22 13:49:00,60.8,41.5,30.05,SSE,148,7.0,9.0,49,0.00,,,0.00,Wunderground v.1.15,2013-01-22 21:49:00,
2013-01-22 13:52:00,60.9,42.1,30.05,SSE,149,6.0,7.0,50,0.00,,,0.00,Wunderground v.1.15,2013-01-22 21:52:00,
2013-01-22 13:53:00,61.0,41.7,30.05,SE,135,6.0,9.0,49,0.00,,,0.00,Wunderground v.1.15,2013-01-22 21:53:00,
2013-01-22 13:54:00,61.1,41.2,30.05,SE,136,7.0,9.0,48,0.00,,,0.00,Wunderground v.1.15,2013-01-22 21:54:00,
2013-01-22 13:58:00,61.2,41.9,30.05,SSE,149,7.0,9.0,49,0.00,,,0.00,Wunderground v.1.15,2013-01-22 21:58:00,
2013-01-22 13:59:00,61.3,42.5,30.05,SSE,147,7.0,9.0,50,0.00,,,0.00,Wunderground v.1.15,2013-01-22 21:59:00,
2013-01-22 14:01:00,61.4,41.0,30.05,SSE,160,6.0,7.0,47,0.00,,,0.00,Wunderground v.1.15,2013-01-22 22:01:00,
2013-01-22 14:03:00,61.5,42.2,30.05,SSE,161,6.0,7.0,49,0.00,,,0.00,Wunderground v.1.15,2013-01-22 22:03:00,
2013-01-22 14:04:00,61.5,41.6,30.05,SSE,154,5.0,7.0,48,0.00,,,0.00,Wunderground v.1.15,2013-01-22 22:04:00,
2013-01-22 14:06:00,61.5,42.2,30.05,SSE,166,5.0,7.0,49,0.00,,,0.00,Wunderground v.1.15,2013-01-22 22:06:00,
2013-01-22 14:09:00,61.4,42.1,30.05,SSE,162,5.0,7.0,49,0.00,,,0.00,Wunderground v.1.15,2013-01-22 22:09:00,
2013-01-22 14:10:00,61.4,41.5,30.05,SSE,156,5.0,8.0,48,0.00,,,0.00,Wunderground v.1.15,2013-01-22 22:10:00,
2013-01-22 14:13:00,61.3,41.4,30.05,SSE,159,6.0,8.0,48,0.00,,,0.00,Wunderground v.1.15,2013-01-22 22:13:00,
2013-01-22 14:17:00,61.1,42.3,30.05,SSE,156,6.0,8.0,50,0.00,,,0.00,Wunderground v.1.15,2013-01-22 22:17:00,
2013-01-22 14:19:00,60.9,42.1,30.05,SSE,156,6.0,8.0,50,0.00,,,0.00,Wunderground v.1.15,2013-01-22 22:19:00,
2013-01-22 14:21:00,60.8,41.5,30.05,SSE,158,7.0,9.0,49,0.00,,,0.00,Wunderground v.1.15,2013-01-22 22:21:00,
2013-01-22 14:24:00,60.7,42.5,30.05,SSE,160,6.0,9.0,51,0.00,,,0.00,Wunderground v.1.15,2013-01-22 22:24:00,
2013-01-22 14:25:00,60.8,42.0,30.05,SSE,154,6.0,9.0,50,0.00,,,0.00,Wunderground v.1.15,2013-01-22 22:25:00,
2013-01-22 14:29:00,60.9,42.6,30.05,SSE,156,6.0,9.0,51,0.00,,,0.00,Wunderground v.1.15,2013-01-22 22:29:00,
2013-01-22 14:30:00,61.0,43.2,30.05,SSE,162,6.0,7.0,52,0.00,,,0.00,Wunderground v.1.15,2013-01-22 22:30:00,
2013-01-22 14:32:00,61.2,42.9,30.05,SE,139,6.0,7.0,51,0.00,,,0.00,Wunderground v.1.15,2013-01-22 22:32:00,
2013-01-22 14:35:00,61.2,41.3,30.05,SSE,156,7.0,9.0,48,0.00,,,0.00,Wunderground v.1.15,2013-01-22 22:35:00,
2013-01-22 14:36:00,61.2,41.3,30.05,SSE,156,7.0,9.0,48,0.00,,,0.00,Wunderground v.1.15,2013-01-22 22:36:00,
2013-01-22 14:38:00,61.3,42.0,30.05,SE,139,7.0,9.0,49,0.00,,,0.00,Wunderground v.1.15,2013-01-22 22:38:00,
2013-01-22 14:41:00,61.3,40.9,30.05,SE,137,7.0,12.0,47,0.00,,,0.00,Wunderground v.1.15,2013-01-22 22:41:00,
2013-01-22 14:42:00,61.3,41.4,30.05,SE,130,8.0,12.0,48,0.00,,,0.00,Wunderground v.1.15,2013-01-22 22:42:00,
2013-01-22 14:44:00,61.2,41.3,30.05,SE,131,8.0,12.0,48,0.00,,,0.00,Wunderground v.1.15,2013-01-22 22:44:00,
2013-01-22 14:46:00,61.1,41.8,30.05,SE,135,8.0,12.0,49,0.00,,,0.00,Wunderground v.1.15,2013-01-22 22:46:00,
2013-01-22 14:47:00,61.1,41.8,30.05,SE,141,8.0,12.0,49,0.00,,,0.00,Wunderground v.1.15,2013-01-22 22:47:00,
2013-01-22 14:48:00,61.0,41.7,30.05,SE,132,8.0,12.0,49,0.00,,,0.00,Wunderground v.1.15,2013-01-22 22:48:00,
2013-01-22 14:51:00,60.8,41.0,30.05,SE,135,8.0,8.0,48,0.00,,,0.00,Wunderground v.1.15,2013-01-22 22:51:00,
2013-01-22 14:53:00,60.6,41.3,30.05,SE,132,8.0,8.0,49,0.00,,,0.00,Wunderground v.1.15,2013-01-22 22:53:00,
2013-01-22 14:54:00,60.6,41.3,30.05,SE,131,8.0,8.0,49,0.00,,,0.00,Wunderground v.1.15,2013-01-22 22:54:00,
2013-01-22 14:58:00,60.5,41.8,30.05,SE,142,8.0,8.0,50,0.00,,,0.00,Wunderground v.1.15,2013-01-22 22:58:00,
2013-01-22 14:59:00,60.5,42.3,30.05,SSE,149,8.0,8.0,51,0.00,,,0.00,Wunderground v.1.15,2013-01-22 22:59:00,
2013-01-22 15:01:00,60.4,42.2,30.05,SSE,152,7.0,7.0,51,0.00,,,0.00,Wunderground v.1.15,2013-01-22 23:01:00,
2013-01-22 15:05:00,60.3,42.1,30.05,SE,127,6.0,9.0,51,0.00,,,0.00,Wunderground v.1.15,2013-01-22 23:05:00,
2013-01-22 15:06:00,60.3,41.6,30.05,SE,129,6.0,9.0,50,0.00,,,0.00,Wunderground v.1.15,2013-01-22 23:06:00,
2013-01-22 15:08:00,60.3,41.6,30.05,SE,126,5.0,9.0,50,0.00,,,0.00,Wunderground v.1.15,2013-01-22 23:08:00,
2013-01-22 15:12:00,60.2,41.5,30.05,SE,128,6.0,6.0,50,0.00,,,0.00,Wunderground v.1.15,2013-01-22 23:12:00,
2013-01-22 15:14:00,60.1,41.9,30.05,SE,130,5.0,6.0,51,0.00,,,0.00,Wunderground v.1.15,2013-01-22 23:14:00,
2013-01-22 15:17:00,60.0,41.8,30.05,SE,135,6.0,7.0,51,0.00,,,0.00,Wunderground v.1.15,2013-01-22 23:17:00,
2013-01-22 15:18:00,60.0,41.8,30.05,SE,145,6.0,7.0,51,0.00,,,0.00,Wunderground v.1.15,2013-01-22 23:18:00,
2013-01-22 15:19:00,59.9,42.2,30.05,SE,145,6.0,7.0,52,0.00,,,0.00,Wunderground v.1.15,2013-01-22 23:19:00,
2013-01-22 15:21:00,59.9,42.2,30.05,SE,145,6.0,6.0,52,0.00,,,0.00,Wunderground v.1.15,2013-01-22 23:21:00,
2013-01-22 15:22:00,59.8,42.1,30.04,SSE,150,6.0,6.0,52,0.00,,,0.00,Wunderground v.1.15,2013-01-22 23:22:00,
2013-01-22 15:25:00,59.7,42.5,30.04,SE,145,5.0,6.0,53,0.00,,,0.00,Wunderground v.1.15,2013-01-22 23:25:00,
2013-01-22 15:29:00,59.6,42.4,30.04,SE,136,4.0,6.0,53,0.00,,,0.00,Wunderground v.1.15,2013-01-22 23:29:00,
2013-01-22 15:30:00,59.6,42.4,30.04,SE,133,4.0,5.0,53,0.00,,,0.00,Wunderground v.1.15,2013-01-22 23:30:00,
2013-01-22 15:31:00,59.6,41.9,30.04,SE,127,4.0,5.0,52,0.00,,,0.00,Wunderground v.1.15,2013-01-22 23:31:00,
2013-01-22 15:32:00,59.6,41.9,30.04,SE,125,4.0,5.0,52,0.00,,,0.00,Wunderground v.1.15,2013-01-22 23:32:00,
2013-01-22 15:37:00,59.7,42.0,30.04,ESE,118,4.0,5.0,52,0.00,,,0.00,Wunderground v.1.15,2013-01-22 23:37:00,
2013-01-22 15:40:00,59.7,41.0,30.04,ESE,122,5.0,5.0,50,0.00,,,0.00,Wunderground v.1.15,2013-01-22 23:40:00,
2013-01-22 15:42:00,59.7,41.5,30.04,SE,131,5.0,8.0,51,0.00,,,0.00,Wunderground v.1.15,2013-01-22 23:42:00,
2013-01-22 15:44:00,59.6,40.9,30.04,SE,131,5.0,8.0,50,0.00,,,0.00,Wunderground v.1.15,2013-01-22 23:44:00,
2013-01-22 15:46:00,59.6,40.9,30.04,SE,134,6.0,8.0,50,0.00,,,0.00,Wunderground v.1.15,2013-01-22 23:46:00,
2013-01-22 15:48:00,59.5,41.3,30.04,SE,135,6.0,8.0,51,0.00,,,0.00,Wunderground v.1.15,2013-01-22 23:48:00,
2013-01-22 15:51:00,59.4,40.7,30.04,SE,131,5.0,6.0,50,0.00,,,0.00,Wunderground v.1.15,2013-01-22 23:51:00,
2013-01-22 15:55:00,59.3,41.2,30.04,SE,142,5.0,6.0,51,0.00,,,0.00,Wunderground v.1.15,2013-01-22 23:55:00,
2013-01-22 15:57:00,59.2,41.1,30.04,SE,144,4.0,6.0,51,0.00,,,0.00,Wunderground v.1.15,2013-01-22 23:57:00,
2013-01-22 15:59:00,59.1,41.5,30.04,SE,144,4.0,6.0,52,0.00,,,0.00,Wunderground v.1.15,2013-01-22 23:59:00,
2013-01-22 16:03:00,59.0,41.4,30.04,SSE,154,4.0,5.0,52,0.00,,,0.00,Wunderground v.1.15,2013-01-23 00:03:00,
2013-01-22 16:04:00,59.0,41.4,30.04,SSE,155,3.0,5.0,52,0.00,,,0.00,Wunderground v.1.15,2013-01-23 00:04:00,
2013-01-22 16:08:00,58.9,41.3,30.04,SSE,153,3.0,5.0,52,0.00,,,0.00,Wunderground v.1.15,2013-01-23 00:08:00,
2013-01-22 16:09:00,58.8,41.7,30.04,SSE,153,3.0,5.0,53,0.00,,,0.00,Wunderground v.1.15,2013-01-23 00:09:00,
2013-01-22 16:10:00,58.8,42.2,30.04,SSE,153,3.0,3.0,54,0.00,,,0.00,Wunderground v.1.15,2013-01-23 00:10:00,
2013-01-22 16:14:00,58.6,42.9,30.04,SSE,154,2.0,3.0,56,0.00,,,0.00,Wunderground v.1.15,2013-01-23 00:14:00,
2013-01-22 16:15:00,58.5,42.8,30.03,SSE,154,2.0,3.0,56,0.00,,,0.00,Wunderground v.1.15,2013-01-23 00:15:00,
2013-01-22 16:18:00,58.3,42.7,30.03,SSE,154,2.0,3.0,56,0.00,,,0.00,Wunderground v.1.15,2013-01-23 00:18:00,
2013-01-22 16:19:00,58.2,42.6,30.03,SSE,153,2.0,3.0,56,0.00,,,0.00,Wunderground v.1.15,2013-01-23 00:19:00,
2013-01-22 16:20:00,58.2,43.0,30.03,SSE,153,2.0,2.0,57,0.00,,,0.00,Wunderground v.1.15,2013-01-23 00:20:00,
2013-01-22 16:21:00,58.1,43.4,30.03,SSE,154,2.0,2.0,58,0.00,,,0.00,Wunderground v.1.15,2013-01-23 00:21:00,
2013-01-22 16:25:00,57.9,43.2,30.03,SSE,154,1.0,2.0,58,0.00,,,0.00,Wunderground v.1.15,2013-01-23 00:25:00,
2013-01-22 16:26:00,57.8,43.6,30.03,SSE,153,1.0,2.0,59,0.00,,,0.00,Wunderground v.1.15,2013-01-23 00:26:00,
2013-01-22 16:30:00,57.7,43.0,30.03,SSE,153,0.0,2.0,58,0.00,,,0.00,Wunderground v.1.15,2013-01-23 00:30:00,
2013-01-22 16:31:00,57.7,43.0,30.03,SSE,154,0.0,2.0,58,0.00,,,0.00,Wunderground v.1.15,2013-01-23 00:31:00,
2013-01-22 16:32:00,57.7,43.0,30.03,SSE,154,0.0,2.0,58,0.00,,,0.00,Wunderground v.1.15,2013-01-23 00:32:00,
2013-01-22 16:35:00,57.6,42.9,30.03,SSE,154,0.0,2.0,58,0.00,,,0.00,Wunderground v.1.15,2013-01-23 00:35:00,
2013-01-22 16:37:00,57.6,42.9,30.03,SSE,154,0.0,2.0,58,0.00,,,0.00,Wunderground v.1.15,2013-01-23 00:37:00,
2013-01-22 16:38:00,57.6,42.9,30.03,SSE,154,0.0,2.0,58,0.00,,,0.00,Wunderground v.1.15,2013-01-23 00:38:00,
2013-01-22 16:40:00,57.6,42.9,30.03,SSE,154,0.0,2.0,58,0.00,,,0.00,Wunderground v.1.15,2013-01-23 00:40:00,
2013-01-22 16:43:00,57.6,42.9,30.03,SSE,153,0.0,3.0,58,0.00,,,0.00,Wunderground v.1.15,2013-01-23 00:43:00,
2013-01-22 16:45:00,57.5,42.8,30.03,SSE,154,1.0,3.0,58,0.00,,,0.00,Wunderground v.1.15,2013-01-23 00:45:00,
2013-01-22 16:46:00,57.5,42.8,30.03,SSE,154,1.0,3.0,58,0.00,,,0.00,Wunderground v.1.15,2013-01-23 00:46:00,
2013-01-22 16:48:00,57.4,42.7,30.03,SSE,154,1.0,3.0,58,0.00,,,0.00,Wunderground v.1.15,2013-01-23 00:48:00,
2013-01-22 16:52:00,57.2,42.5,30.03,SSE,168,1.0,2.0,58,0.00,,,0.00,Wunderground v.1.15,2013-01-23 00:52:00,
2013-01-22 16:53:00,57.1,42.5,30.04,South,174,1.0,3.0,58,0.00,,,0.00,Wunderground v.1.15,2013-01-23 00:53:00,
2013-01-22 16:54:00,57.1,42.5,30.04,South,177,1.0,4.0,58,0.00,,,0.00,Wunderground v.1.15,2013-01-23 00:54:00,
2013-01-22 16:57:00,57.0,42.4,30.04,SSE,168,2.0,4.0,58,0.00,,,0.00,Wunderground v.1.15,2013-01-23 00:57:00,
2013-01-22 17:00:00,56.8,42.2,30.04,SSE,168,2.0,2.0,58,0.00,,,0.00,Wunderground v.1.15,2013-01-23 01:00:00,
2013-01-22 17:02:00,56.8,42.6,30.04,SSE,165,2.0,2.0,59,0.00,,,0.00,Wunderground v.1.15,2013-01-23 01:02:00,
2013-01-22 17:03:00,56.7,42.5,30.03,SSE,163,2.0,2.0,59,0.00,,,0.00,Wunderground v.1.15,2013-01-23 01:03:00,
2013-01-22 17:07:00,56.6,42.0,30.03,SSE,162,2.0,4.0,58,0.00,,,0.00,Wunderground v.1.15,2013-01-23 01:07:00,
2013-01-22 17:08:00,56.6,42.0,30.04,SSE,160,2.0,4.0,58,0.00,,,0.00,Wunderground v.1.15,2013-01-23 01:08:00,
2013-01-22 17:09:00,56.6,42.0,30.04,SSE,160,2.0,4.0,58,0.00,,,0.00,Wunderground v.1.15,2013-01-23 01:09:00,
2013-01-22 17:10:00,56.6,42.0,30.03,SSE,156,2.0,4.0,58,0.00,,,0.00,Wunderground v.1.15,2013-01-23 01:10:00,
2013-01-22 17:13:00,56.4,41.8,30.03,SSE,149,3.0,4.0,58,0.00,,,0.00,Wunderground v.1.15,2013-01-23 01:13:00,
2013-01-22 17:15:00,56.3,41.7,30.03,SE,145,3.0,6.0,58,0.00,,,0.00,Wunderground v.1.15,2013-01-23 01:15:00,
2013-01-22 17:19:00,56.2,41.6,30.03,SE,137,5.0,7.0,58,0.00,,,0.00,Wunderground v.1.15,2013-01-23 01:19:00,
2013-01-22 17:20:00,56.1,41.5,30.03,SE,135,5.0,5.0,58,0.00,,,0.00,Wunderground v.1.15,2013-01-23 01:20:00,
2013-01-22 17:21:00,56.1,41.5,30.03,SE,135,5.0,5.0,58,0.00,,,0.00,Wunderground v.1.15,2013-01-23 01:21:00,
2013-01-22 17:24:00,56.1,41.5,30.03,SE,135,5.0,5.0,58,0.00,,,0.00,Wunderground v.1.15,2013-01-23 01:24:00,
2013-01-22 17:25:00,56.0,41.4,30.03,SE,135,5.0,5.0,58,0.00,,,0.00,Wunderground v.1.15,2013-01-23 01:25:00,
2013-01-22 17:29:00,56.0,41.4,30.03,SE,127,4.0,5.0,58,0.00,,,0.00,Wunderground v.1.15,2013-01-23 01:29:00,
2013-01-22 17:30:00,56.0,41.4,30.03,SE,127,3.0,3.0,58,0.00,,,0.00,Wunderground v.1.15,2013-01-23 01:30:00,
2013-01-22 17:35:00,55.9,41.3,30.03,SE,127,3.0,4.0,58,0.00,,,0.00,Wunderground v.1.15,2013-01-23 01:35:00,
2013-01-22 17:36:00,55.9,41.3,30.03,SE,126,3.0,4.0,58,0.00,,,0.00,Wunderground v.1.15,2013-01-23 01:36:00,
2013-01-22 17:37:00,55.9,41.8,30.03,SE,126,3.0,4.0,59,0.00,,,0.00,Wunderground v.1.15,2013-01-23 01:37:00,
2013-01-22 17:39:00,55.7,41.6,30.03,SE,126,3.0,5.0,59,0.00,,,0.00,Wunderground v.1.15,2013-01-23 01:39:00,
2013-01-22 17:42:00,55.5,41.4,30.03,SE,125,4.0,5.0,59,0.00,,,0.00,Wunderground v.1.15,2013-01-23 01:42:00,
2013-01-22 17:44:00,55.5,41.8,30.03,SE,127,4.0,5.0,60,0.00,,,0.00,Wunderground v.1.15,2013-01-23 01:44:00,
2013-01-22 17:46:00,55.3,41.6,30.03,SE,127,4.0,5.0,60,0.00,,,0.00,Wunderground v.1.15,2013-01-23 01:46:00,
2013-01-22 17:47:00,55.3,41.6,30.03,SE,131,4.0,5.0,60,0.00,,,0.00,Wunderground v.1.15,2013-01-23 01:47:00,
2013-01-22 17:49:00,55.1,41.5,30.03,SE,141,4.0,5.0,60,0.00,,,0.00,Wunderground v.1.15,2013-01-23 01:49:00,
2013-01-22 17:51:00,55.0,41.8,30.03,SE,141,4.0,4.0,61,0.00,,,0.00,Wunderground v.1.15,2013-01-23 01:51:00,
2013-01-22 17:53:00,54.8,41.6,30.03,SSE,147,3.0,4.0,61,0.00,,,0.00,Wunderground v.1.15,2013-01-23 01:53:00,
2013-01-22 17:57:00,54.4,41.6,30.02,SSE,147,3.0,4.0,62,0.00,,,0.00,Wunderground v.1.15,2013-01-23 01:57:00,
2013-01-22 17:58:00,54.3,41.6,30.03,SSE,147,3.0,4.0,62,0.00,,,0.00,Wunderground v.1.15,2013-01-23 01:58:00,
2013-01-22 17:59:00,54.2,41.5,30.03,SSE,147,3.0,4.0,62,0.00,,,0.00,Wunderground v.1.15,2013-01-23 01:59:00,
2013-01-22 18:00:00,54.1,41.4,30.03,SSE,163,2.0,2.0,62,0.00,,,0.00,Wunderground v.1.15,2013-01-23 02:00:00,
2013-01-22 18:02:00,54.0,41.3,30.03,SSE,157,2.0,2.0,62,0.00,,,0.00,Wunderground v.1.15,2013-01-23 02:02:00,
2013-01-22 18:05:00,53.9,41.2,30.02,SSE,152,2.0,3.0,62,0.00,,,0.00,Wunderground v.1.15,2013-01-23 02:05:00,
2013-01-22 18:07:00,53.9,41.6,30.02,SSE,152,2.0,3.0,63,0.00,,,0.00,Wunderground v.1.15,2013-01-23 02:07:00,
2013-01-22 18:09:00,53.8,41.5,30.02,SSE,154,2.0,3.0,63,0.00,,,0.00,Wunderground v.1.15,2013-01-23 02:09:00,
2013-01-22 18:10:00,53.8,41.5,30.02,SSE,154,2.0,2.0,63,0.00,,,0.00,Wunderground v.1.15,2013-01-23 02:10:00,
2013-01-22 18:12:00,53.7,41.4,30.03,SSE,154,2.0,2.0,63,0.00,,,0.00,Wunderground v.1.15,2013-01-23 02:12:00,
2013-01-22 18:16:00,53.5,41.6,30.03,South,173,2.0,3.0,64,0.00,,,0.00,Wunderground v.1.15,2013-01-23 02:16:00,
2013-01-22 18:18:00,53.1,41.2,30.03,South,173,2.0,3.0,64,0.00,,,0.00,Wunderground v.1.15,2013-01-23 02:18:00,
2013-01-22 18:19:00,53.0,41.5,30.03,South,173,2.0,3.0,65,0.00,,,0.00,Wunderground v.1.15,2013-01-23 02:19:00,
2013-01-22 18:24:00,52.4,41.4,30.03,South,173,2.0,2.0,66,0.00,,,0.00,Wunderground v.1.15,2013-01-23 02:24:00,
2013-01-22 18:25:00,52.3,41.3,30.03,South,173,2.0,2.0,66,0.00,,,0.00,Wunderground v.1.15,2013-01-23 02:25:00,
2013-01-22 18:26:00,52.2,41.6,30.03,South,173,1.0,3.0,67,0.00,,,0.00,Wunderground v.1.15,2013-01-23 02:26:00,
2013-01-22 18:31:00,51.9,42.4,30.03,South,173,1.0,3.0,70,0.00,,,0.00,Wunderground v.1.15,2013-01-23 02:31:00,
2013-01-22 18:33:00,51.8,42.3,30.03,South,173,1.0,3.0,70,0.00,,,0.00,Wunderground v.1.15,2013-01-23 02:33:00,
2013-01-22 18:36:00,51.7,42.2,30.03,South,173,1.0,3.0,70,0.00,,,0.00,Wunderground v.1.15,2013-01-23 02:36:00,
2013-01-22 18:38:00,51.6,42.1,30.03,South,173,1.0,3.0,70,0.00,,,0.00,Wunderground v.1.15,2013-01-23 02:38:00,
2013-01-22 18:41:00,51.6,42.1,30.03,South,173,0.0,2.0,70,0.00,,,0.00,Wunderground v.1.15,2013-01-23 02:41:00,
2013-01-22 18:43:00,51.6,42.1,30.03,South,173,0.0,2.0,70,0.00,,,0.00,Wunderground v.1.15,2013-01-23 02:43:00,
2013-01-22 18:44:00,51.7,42.2,30.03,South,173,0.0,2.0,70,0.00,,,0.00,Wunderground v.1.15,2013-01-23 02:44:00,
2013-01-22 18:48:00,51.7,41.9,30.03,South,173,0.0,2.0,69,0.00,,,0.00,Wunderground v.1.15,2013-01-23 02:48:00,
2013-01-22 18:49:00,51.7,41.9,30.03,South,173,0.0,2.0,69,0.00,,,0.00,Wunderground v.1.15,2013-01-23 02:49:00,
2013-01-22 18:50:00,51.7,42.2,30.03,South,173,0.0,2.0,70,0.00,,,0.00,Wunderground v.1.15,2013-01-23 02:50:00,
2013-01-22 18:54:00,51.8,41.9,30.03,South,173,0.0,2.0,69,0.00,,,0.00,Wunderground v.1.15,2013-01-23 02:54:00,
2013-01-22 18:56:00,51.9,42.0,30.03,South,173,0.0,2.0,69,0.00,,,0.00,Wunderground v.1.15,2013-01-23 02:56:00,
2013-01-22 18:57:00,51.8,41.9,30.04,South,173,0.0,2.0,69,0.00,,,0.00,Wunderground v.1.15,2013-01-23 02:57:00,
2013-01-22 18:59:00,51.8,42.3,30.03,South,173,1.0,2.0,70,0.00,,,0.00,Wunderground v.1.15,2013-01-23 02:59:00,
2013-01-22 19:02:00,51.8,42.3,30.03,South,173,1.0,2.0,70,0.00,,,0.00,Wunderground v.1.15,2013-01-23 03:02:00,
2013-01-22 19:04:00,51.9,42.4,30.04,South,173,1.0,2.0,70,0.00,,,0.00,Wunderground v.1.15,2013-01-23 03:04:00,
2013-01-22 19:05:00,51.9,42.4,30.04,South,173,1.0,2.0,70,0.00,,,0.00,Wunderground v.1.15,2013-01-23 03:05:00,
2013-01-22 19:06:00,51.9,42.4,30.04,South,173,1.0,2.0,70,0.00,,,0.00,Wunderground v.1.15,2013-01-23 03:06:00,
2013-01-22 19:07:00,52.0,42.1,30.04,South,173,1.0,2.0,69,0.00,,,0.00,Wunderground v.1.15,2013-01-23 03:07:00,
2013-01-22 19:11:00,52.2,42.3,30.04,South,173,0.0,2.0,69,0.00,,,0.00,Wunderground v.1.15,2013-01-23 03:11:00,
2013-01-22 19:12:00,52.2,42.3,30.04,South,173,0.0,2.0,69,0.00,,,0.00,Wunderground v.1.15,2013-01-23 03:12:00,
2013-01-22 19:16:00,52.1,42.2,30.04,South,173,0.0,2.0,69,0.00,,,0.00,Wunderground v.1.15,2013-01-23 03:16:00,
2013-01-22 19:21:00,51.5,42.0,30.04,South,173,0.0,2.0,70,0.00,,,0.00,Wunderground v.1.15,2013-01-23 03:21:00,
2013-01-22 19:22:00,51.4,41.9,30.04,South,173,0.0,2.0,70,0.00,,,0.00,Wunderground v.1.15,2013-01-23 03:22:00,
2013-01-22 19:25:00,51.0,41.9,30.04,South,173,0.0,2.0,71,0.00,,,0.00,Wunderground v.1.15,2013-01-23 03:25:00,
2013-01-22 19:28:00,50.6,41.9,30.04,South,173,0.0,2.0,72,0.00,,,0.00,Wunderground v.1.15,2013-01-23 03:28:00,
2013-01-22 19:30:00,50.4,41.7,30.04,South,173,1.0,3.0,72,0.00,,,0.00,Wunderground v.1.15,2013-01-23 03:30:00,
2013-01-22 19:31:00,50.3,42.0,30.04,South,173,1.0,3.0,73,0.00,,,0.00,Wunderground v.1.15,2013-01-23 03:31:00,
2013-01-22 19:34:00,50.3,42.0,30.04,South,173,1.0,3.0,73,0.00,,,0.00,Wunderground v.1.15,2013-01-23 03:34:00,
2013-01-22 19:36:00,50.3,42.3,30.04,South,173,2.0,3.0,74,0.00,,,0.00,Wunderground v.1.15,2013-01-23 03:36:00,
2013-01-22 19:37:00,50.3,42.3,30.04,South,173,2.0,4.0,74,0.00,,,0.00,Wunderground v.1.15,2013-01-23 03:37:00,
2013-01-22 19:38:00,50.3,42.3,30.04,SSE,161,2.0,4.0,74,0.00,,,0.00,Wunderground v.1.15,2013-01-23 03:38:00,
2013-01-22 19:41:00,50.3,42.0,30.04,ESE,102,3.0,5.0,73,0.00,,,0.00,Wunderground v.1.15,2013-01-23 03:41:00,
2013-01-22 19:42:00,50.3,42.0,30.04,ESE,102,3.0,5.0,73,0.00,,,0.00,Wunderground v.1.15,2013-01-23 03:42:00,
2013-01-22 19:45:00,50.3,42.0,30.04,East,85,4.0,5.0,73,0.00,,,0.00,Wunderground v.1.15,2013-01-23 03:45:00,
2013-01-22 19:46:00,50.3,42.0,30.04,ENE,77,4.0,5.0,73,0.00,,,0.00,Wunderground v.1.15,2013-01-23 03:46:00,
2013-01-22 19:50:00,50.0,41.7,30.04,ENE,68,4.0,4.0,73,0.00,,,0.00,Wunderground v.1.15,2013-01-23 03:50:00,
2013-01-22 19:51:00,49.9,41.6,30.04,ENE,68,4.0,4.0,73,0.00,,,0.00,Wunderground v.1.15,2013-01-23 03:51:00,
2013-01-22 19:52:00,49.8,41.5,30.04,ENE,67,3.0,4.0,73,0.00,,,0.00,Wunderground v.1.15,2013-01-23 03:52:00,
2013-01-22 19:53:00,49.7,41.4,30.04,ENE,60,3.0,4.0,73,0.00,,,0.00,Wunderground v.1.15,2013-01-23 03:53:00,
2013-01-22 19:56:00,49.7,41.7,30.03,NE,50,3.0,4.0,74,0.00,,,0.00,Wunderground v.1.15,2013-01-23 03:56:00,
2013-01-22 19:59:00,49.7,41.7,30.03,NE,50,3.0,4.0,74,0.00,,,0.00,Wunderground v.1.15,2013-01-23 03:59:00,
2013-01-22 20:00:00,49.7,41.7,30.04,NE,50,2.0,2.0,74,0.00,,,0.00,Wunderground v.1.15,2013-01-23 04:00:00,
2013-01-22 20:01:00,49.6,41.7,30.04,NE,50,2.0,2.0,74,0.00,,,0.00,Wunderground v.1.15,2013-01-23 04:01:00,
2013-01-22 20:04:00,49.5,41.6,30.04,NE,49,1.0,2.0,74,0.00,,,0.00,Wunderground v.1.15,2013-01-23 04:04:00,
2013-01-22 20:06:00,49.4,41.5,30.04,NE,50,0.0,2.0,74,0.00,,,0.00,Wunderground v.1.15,2013-01-23 04:06:00,
2013-01-22 20:08:00,49.2,41.3,30.04,NE,50,0.0,2.0,74,0.00,,,0.00,Wunderground v.1.15,2013-01-23 04:08:00,
2013-01-22 20:09:00,49.1,41.5,30.04,NE,50,0.0,2.0,75,0.00,,,0.00,Wunderground v.1.15,2013-01-23 04:09:00,
2013-01-22 20:12:00,49.0,41.4,30.04,NE,50,0.0,2.0,75,0.00,,,0.00,Wunderground v.1.15,2013-01-23 04:12:00,
2013-01-22 20:13:00,48.8,41.2,30.04,NE,49,0.0,2.0,75,0.00,,,0.00,Wunderground v.1.15,2013-01-23 04:13:00,
2013-01-22 20:15:00,48.6,41.4,30.04,NE,50,0.0,2.0,76,0.00,,,0.00,Wunderground v.1.15,2013-01-23 04:15:00,
2013-01-22 20:16:00,48.6,41.4,30.04,NE,50,0.0,2.0,76,0.00,,,0.00,Wunderground v.1.15,2013-01-23 04:16:00,
2013-01-22 20:21:00,48.3,41.4,30.04,NE,49,0.0,2.0,77,0.00,,,0.00,Wunderground v.1.15,2013-01-23 04:21:00,
2013-01-22 20:22:00,48.2,41.3,30.04,NE,50,0.0,2.0,77,0.00,,,0.00,Wunderground v.1.15,2013-01-23 04:22:00,
2013-01-22 20:24:00,48.1,41.2,30.04,NE,49,0.0,2.0,77,0.00,,,0.00,Wunderground v.1.15,2013-01-23 04:24:00,
2013-01-22 20:27:00,47.9,41.4,30.04,NE,50,0.0,2.0,78,0.00,,,0.00,Wunderground v.1.15,2013-01-23 04:27:00,
2013-01-22 20:29:00,47.8,41.3,30.04,NE,49,0.0,2.0,78,0.00,,,0.00,Wunderground v.1.15,2013-01-23 04:29:00,
2013-01-22 20:30:00,47.8,41.3,30.04,NE,50,0.0,2.0,78,0.00,,,0.00,Wunderground v.1.15,2013-01-23 04:30:00,
2013-01-22 20:34:00,47.6,41.1,30.05,NE,50,0.0,2.0,78,0.00,,,0.00,Wunderground v.1.15,2013-01-23 04:34:00,
2013-01-22 20:35:00,47.6,41.1,30.05,NE,50,0.0,2.0,78,0.00,,,0.00,Wunderground v.1.15,2013-01-23 04:35:00,
2013-01-22 20:36:00,47.6,41.4,30.05,NE,49,0.0,2.0,79,0.00,,,0.00,Wunderground v.1.15,2013-01-23 04:36:00,
2013-01-22 20:37:00,47.6,41.4,30.05,NE,50,0.0,2.0,79,0.00,,,0.00,Wunderground v.1.15,2013-01-23 04:37:00,
2013-01-22 20:39:00,47.6,41.4,30.05,NE,49,0.0,2.0,79,0.00,,,0.00,Wunderground v.1.15,2013-01-23 04:39:00,
2013-01-22 20:40:00,47.7,41.5,30.05,NE,50,0.0,2.0,79,0.00,,,0.00,Wunderground v.1.15,2013-01-23 04:40:00,
2013-01-22 20:46:00,48.3,41.4,30.06,NE,50,2.0,5.0,77,0.00,,,0.00,Wunderground v.1.15,2013-01-23 04:46:00,
2013-01-22 20:47:00,48.4,41.5,30.05,NE,49,2.0,5.0,77,0.00,,,0.00,Wunderground v.1.15,2013-01-23 04:47:00,
2013-01-22 20:48:00,48.6,41.7,30.05,NE,49,3.0,5.0,77,0.00,,,0.00,Wunderground v.1.15,2013-01-23 04:48:00,
2013-01-22 20:49:00,48.8,41.6,30.05,NE,50,3.0,5.0,76,0.00,,,0.00,Wunderground v.1.15,2013-01-23 04:49:00,
2013-01-22 20:53:00,49.5,41.6,30.05,NE,42,4.0,6.0,74,0.00,,,0.00,Wunderground v.1.15,2013-01-23 04:53:00,
2013-01-22 20:54:00,49.6,41.7,30.06,NE,42,5.0,6.0,74,0.00,,,0.00,Wunderground v.1.15,2013-01-23 04:54:00,
2013-01-22 20:55:00,49.6,41.7,30.06,NE,42,5.0,6.0,74,0.00,,,0.00,Wunderground v.1.15,2013-01-23 04:55:00,
2013-01-22 21:02:00,50.1,41.8,30.06,NE,42,4.0,5.0,73,0.00,,,0.00,Wunderground v.1.15,2013-01-23 05:02:00,
2013-01-22 21:05:00,49.9,41.6,30.06,NE,42,3.0,5.0,73,0.00,,,0.00,Wunderground v.1.15,2013-01-23 05:05:00,
2013-01-22 21:07:00,49.8,41.5,30.06,NE,42,2.0,5.0,73,0.00,,,0.00,Wunderground v.1.15,2013-01-23 05:07:00,
2013-01-22 21:09:00,49.6,41.3,30.06,NE,42,1.0,5.0,73,0.00,,,0.00,Wunderground v.1.15,2013-01-23 05:09:00,
2013-01-22 21:12:00,49.5,41.6,30.06,NE,42,0.0,2.0,74,0.00,,,0.00,Wunderground v.1.15,2013-01-23 05:12:00,
2013-01-22 21:14:00,49.4,41.5,30.06,NE,42,0.0,2.0,74,0.00,,,0.00,Wunderground v.1.15,2013-01-23 05:14:00,
2013-01-22 21:19:00,48.8,41.2,30.06,NE,42,1.0,3.0,75,0.00,,,0.00,Wunderground v.1.15,2013-01-23 05:19:00,
2013-01-22 21:20:00,48.8,41.2,30.06,NE,42,2.0,2.0,75,0.00,,,0.00,Wunderground v.1.15,2013-01-23 05:20:00,
2013-01-22 21:22:00,48.6,41.0,30.06,NE,41,1.0,2.0,75,0.00,,,0.00,Wunderground v.1.15,2013-01-23 05:22:00,
2013-01-22 21:23:00,48.5,40.9,30.06,NE,41,1.0,2.0,75,0.00,,,0.00,Wunderground v.1.15,2013-01-23 05:23:00,
2013-01-22 21:27:00,48.3,41.1,30.06,NE,42,1.0,2.0,76,0.00,,,0.00,Wunderground v.1.15,2013-01-23 05:27:00,
2013-01-22 21:29:00,48.1,40.9,30.07,NE,41,0.0,2.0,76,0.00,,,0.00,Wunderground v.1.15,2013-01-23 05:29:00,
2013-01-22 21:33:00,47.4,40.6,30.06,NE,42,0.0,2.0,77,0.00,,,0.00,Wunderground v.1.15,2013-01-23 05:33:00,
2013-01-22 21:34:00,47.3,40.5,30.07,NE,42,1.0,2.0,77,0.00,,,0.00,Wunderground v.1.15,2013-01-23 05:34:00,
2013-01-22 21:35:00,47.2,40.7,30.07,NE,42,1.0,2.0,78,0.00,,,0.00,Wunderground v.1.15,2013-01-23 05:35:00,
2013-01-22 21:40:00,46.9,40.4,30.06,NE,42,1.0,1.0,78,0.00,,,0.00,Wunderground v.1.15,2013-01-23 05:40:00,
2013-01-22 21:42:00,46.8,40.6,30.06,NE,42,1.0,2.0,79,0.00,,,0.00,Wunderground v.1.15,2013-01-23 05:42:00,
2013-01-22 21:45:00,46.5,40.3,30.07,NE,42,0.0,2.0,79,0.00,,,0.00,Wunderground v.1.15,2013-01-23 05:45:00,
2013-01-22 21:47:00,46.4,40.2,30.07,NE,41,0.0,2.0,79,0.00,,,0.00,Wunderground v.1.15,2013-01-23 05:47:00,
2013-01-22 21:48:00,46.4,40.6,30.07,NE,41,0.0,2.0,80,0.00,,,0.00,Wunderground v.1.15,2013-01-23 05:48:00,
2013-01-22 21:50:00,46.3,40.5,30.07,NE,41,0.0,2.0,80,0.00,,,0.00,Wunderground v.1.15,2013-01-23 05:50:00,
2013-01-22 21:53:00,46.1,40.3,30.07,NE,42,0.0,2.0,80,0.00,,,0.00,Wunderground v.1.15,2013-01-23 05:53:00,
2013-01-22 21:57:00,46.0,40.5,30.06,NE,41,0.0,2.0,81,0.00,,,0.00,Wunderground v.1.15,2013-01-23 05:57:00,
2013-01-22 21:58:00,46.0,40.5,30.06,NE,42,0.0,2.0,81,0.00,,,0.00,Wunderground v.1.15,2013-01-23 05:58:00,
2013-01-22 22:00:00,45.9,40.4,30.06,NE,42,0.0,2.0,81,0.00,,,0.00,Wunderground v.1.15,2013-01-23 06:00:00,
2013-01-22 22:03:00,45.8,40.3,30.07,NE,41,0.0,2.0,81,0.00,,,0.00,Wunderground v.1.15,2013-01-23 06:03:00,
2013-01-22 22:04:00,45.7,40.2,30.07,NE,41,0.0,2.0,81,0.00,,,0.00,Wunderground v.1.15,2013-01-23 06:04:00,
2013-01-22 22:07:00,45.6,40.1,30.07,NE,42,0.0,2.0,81,0.00,,,0.00,Wunderground v.1.15,2013-01-23 06:07:00,
2013-01-22 22:09:00,45.5,40.3,30.07,NE,41,0.0,2.0,82,0.00,,,0.00,Wunderground v.1.15,2013-01-23 06:09:00,
2013-01-22 22:10:00,45.5,40.3,30.07,NE,42,0.0,2.0,82,0.00,,,0.00,Wunderground v.1.15,2013-01-23 06:10:00,
2013-01-22 22:11:00,45.5,40.3,30.07,NE,42,0.0,2.0,82,0.00,,,0.00,Wunderground v.1.15,2013-01-23 06:11:00,
2013-01-22 22:15:00,45.4,40.2,30.07,NE,41,0.0,2.0,82,0.00,,,0.00,Wunderground v.1.15,2013-01-23 06:15:00,
2013-01-22 22:17:00,45.4,40.2,30.07,NE,41,0.0,2.0,82,0.00,,,0.00,Wunderground v.1.15,2013-01-23 06:17:00,
2013-01-22 22:18:00,45.3,40.1,30.07,NE,41,0.0,2.0,82,0.00,,,0.00,Wunderground v.1.15,2013-01-23 06:18:00,
2013-01-22 22:19:00,45.4,40.2,30.07,NE,41,0.0,2.0,82,0.00,,,0.00,Wunderground v.1.15,2013-01-23 06:19:00,
2013-01-22 22:21:00,45.4,40.5,30.07,NE,41,0.0,2.0,83,0.00,,,0.00,Wunderground v.1.15,2013-01-23 06:21:00,
2013-01-22 22:22:00,45.4,40.2,30.07,NE,41,0.0,2.0,82,0.00,,,0.00,Wunderground v.1.15,2013-01-23 06:22:00,
2013-01-22 22:23:00,45.4,40.2,30.07,NE,41,0.0,2.0,82,0.00,,,0.00,Wunderground v.1.15,2013-01-23 06:23:00,
2013-01-22 22:27:00,45.3,40.1,30.07,NE,42,0.0,2.0,82,0.00,,,0.00,Wunderground v.1.15,2013-01-23 06:27:00,
2013-01-22 22:28:00,45.3,40.1,30.07,NE,41,0.0,2.0,82,0.00,,,0.00,Wunderground v.1.15,2013-01-23 06:28:00,
2013-01-22 22:29:00,45.3,40.1,30.07,NE,42,0.0,2.0,82,0.00,,,0.00,Wunderground v.1.15,2013-01-23 06:29:00,
2013-01-22 22:33:00,45.4,40.2,30.07,NE,41,0.0,2.0,82,0.00,,,0.00,Wunderground v.1.15,2013-01-23 06:33:00,
2013-01-22 22:36:00,45.3,40.1,30.07,NE,41,0.0,2.0,82,0.00,,,0.00,Wunderground v.1.15,2013-01-23 06:36:00,
2013-01-22 22:37:00,45.3,40.1,30.07,NE,41,0.0,2.0,82,0.00,,,0.00,Wunderground v.1.15,2013-01-23 06:37:00,
2013-01-22 22:38:00,45.3,40.1,30.07,NE,41,0.0,2.0,82,0.00,,,0.00,Wunderground v.1.15,2013-01-23 06:38:00,
2013-01-22 22:43:00,45.3,40.4,30.07,NE,41,0.0,2.0,83,0.00,,,0.00,Wunderground v.1.15,2013-01-23 06:43:00,
2013-01-22 22:45:00,45.3,40.4,30.07,NE,42,0.0,2.0,83,0.00,,,0.00,Wunderground v.1.15,2013-01-23 06:45:00,
2013-01-22 22:48:00,45.3,40.4,30.07,NE,42,0.0,2.0,83,0.00,,,0.00,Wunderground v.1.15,2013-01-23 06:48:00,
2013-01-22 22:50:00,45.3,40.4,30.07,NE,42,0.0,2.0,83,0.00,,,0.00,Wunderground v.1.15,2013-01-23 06:50:00,
2013-01-22 22:51:00,45.3,40.4,30.07,NE,42,0.0,2.0,83,0.00,,,0.00,Wunderground v.1.15,2013-01-23 06:51:00,
2013-01-22 22:52:00,45.3,40.4,30.07,NE,42,0.0,2.0,83,0.00,,,0.00,Wunderground v.1.15,2013-01-23 06:52:00,
2013-01-22 22:57:00,45.4,40.5,30.07,NE,41,0.0,2.0,83,0.00,,,0.00,Wunderground v.1.15,2013-01-23 06:57:00,
2013-01-22 22:58:00,45.4,40.5,30.07,NE,42,0.0,2.0,83,0.00,,,0.00,Wunderground v.1.15,2013-01-23 06:58:00,
2013-01-22 22:59:00,45.4,40.5,30.07,NE,41,0.0,2.0,83,0.00,,,0.00,Wunderground v.1.15,2013-01-23 06:59:00,
2013-01-22 23:02:00,45.6,40.4,30.06,NE,41,0.0,1.0,82,0.00,,,0.00,Wunderground v.1.15,2013-01-23 07:02:00,
2013-01-22 23:03:00,45.6,40.4,30.06,NE,42,0.0,1.0,82,0.00,,,0.00,Wunderground v.1.15,2013-01-23 07:03:00,
2013-01-22 23:04:00,45.7,40.5,30.06,NE,42,0.0,1.0,82,0.00,,,0.00,Wunderground v.1.15,2013-01-23 07:04:00,
2013-01-22 23:08:00,45.7,40.5,30.07,NE,41,0.0,1.0,82,0.00,,,0.00,Wunderground v.1.15,2013-01-23 07:08:00,
2013-01-22 23:09:00,45.7,40.5,30.07,NE,41,0.0,1.0,82,0.00,,,0.00,Wunderground v.1.15,2013-01-23 07:09:00,
2013-01-22 23:11:00,45.8,40.6,30.07,NE,41,0.0,1.0,82,0.00,,,0.00,Wunderground v.1.15,2013-01-23 07:11:00,
2013-01-22 23:14:00,45.7,40.5,30.07,NE,42,0.0,1.0,82,0.00,,,0.00,Wunderground v.1.15,2013-01-23 07:14:00,
2013-01-22 23:16:00,45.7,40.5,30.07,NE,42,0.0,1.0,82,0.00,,,0.00,Wunderground v.1.15,2013-01-23 07:16:00,
2013-01-22 23:17:00,45.7,40.5,30.07,NE,41,0.0,1.0,82,0.00,,,0.00,Wunderground v.1.15,2013-01-23 07:17:00,
2013-01-22 23:19:00,45.6,40.4,30.07,NE,41,0.0,1.0,82,0.00,,,0.00,Wunderground v.1.15,2013-01-23 07:19:00,
2013-01-22 23:22:00,45.6,40.4,30.07,NE,42,0.0,1.0,82,0.00,,,0.00,Wunderground v.1.15,2013-01-23 07:22:00,
2013-01-22 23:23:00,45.6,40.4,30.07,NE,41,0.0,1.0,82,0.00,,,0.00,Wunderground v.1.15,2013-01-23 07:23:00,
2013-01-22 23:28:00,45.5,40.6,30.07,NE,42,0.0,2.0,83,0.00,,,0.00,Wunderground v.1.15,2013-01-23 07:28:00,
2013-01-22 23:30:00,45.4,40.5,30.07,NE,41,0.0,2.0,83,0.00,,,0.00,Wunderground v.1.15,2013-01-23 07:30:00,
2013-01-22 23:31:00,45.4,40.2,30.07,NE,41,0.0,2.0,82,0.00,,,0.00,Wunderground v.1.15,2013-01-23 07:31:00,
2013-01-22 23:33:00,45.2,40.3,30.07,NE,42,0.0,2.0,83,0.00,,,0.00,Wunderground v.1.15,2013-01-23 07:33:00,
2013-01-22 23:34:00,45.2,40.3,30.07,NE,41,0.0,2.0,83,0.00,,,0.00,Wunderground v.1.15,2013-01-23 07:34:00,
2013-01-22 23:38:00,45.0,40.1,30.07,NE,42,1.0,2.0,83,0.00,,,0.00,Wunderground v.1.15,2013-01-23 07:38:00,
2013-01-22 23:39:00,44.9,40.0,30.07,NE,41,1.0,2.0,83,0.00,,,0.00,Wunderground v.1.15,2013-01-23 07:39:00,
2013-01-22 23:42:00,45.0,40.1,30.07,NE,42,1.0,2.0,83,0.00,,,0.00,Wunderground v.1.15,2013-01-23 07:42:00,
2013-01-22 23:43:00,45.0,40.1,30.07,NE,42,1.0,2.0,83,0.00,,,0.00,Wunderground v.1.15,2013-01-23 07:43:00,
2013-01-22 23:44:00,45.1,40.2,30.06,NE,42,1.0,2.0,83,0.00,,,0.00,Wunderground v.1.15,2013-01-23 07:44:00,
2013-01-22 23:45:00,45.1,40.2,30.06,NE,41,1.0,2.0,83,0.00,,,0.00,Wunderground v.1.15,2013-01-23 07:45:00,
2013-01-22 23:47:00,45.1,40.2,30.06,NE,42,1.0,2.0,83,0.00,,,0.00,Wunderground v.1.15,2013-01-23 07:47:00,
2013-01-22 23:49:00,45.1,40.2,30.06,NE,41,1.0,2.0,83,0.00,,,0.00,Wunderground v.1.15,2013-01-23 07:49:00,
2013-01-22 23:51:00,45.1,40.2,30.06,NE,42,1.0,1.0,83,0.00,,,0.00,Wunderground v.1.15,2013-01-23 07:51:00,
2013-01-22 23:55:00,45.1,40.2,30.06,NE,41,0.0,1.0,83,0.00,,,0.00,Wunderground v.1.15,2013-01-23 07:55:00,
2013-01-22 23:57:00,45.1,40.2,30.06,NE,41,0.0,1.0,83,0.00,,,0.00,Wunderground v.1.15,2013-01-23 07:57:00,
2013-01-22 23:58:00,45.1,40.6,30.06,NE,42,0.0,1.0,84,0.00,,,0.00,Wunderground v.1.15,2013-01-23 07:58:00,